Wetterdaten: Mittwoch, 15.01.2020
Datum Zeit Temp. Aussen Temp. o. S. Temp +5cm Feuchte Auss Luftdruck Regen Sonnenschein Regendauer Solar Windben Empfang
15.01.2020 00:00 12,4 C 11,7 C 11,1 C 77 % 1009,9 hPa 0,0 l/m 0 min 0 min 0 W/m 41,8 km/h (6 Bft) 95,74 %
15.01.2020 00:02 12,5 C 12,2 C 11,1 C 77 % 1009,8 hPa 0,0 l/m 0 min 0 min 0 W/m 45,1 km/h (6 Bft) 95,35 %
15.01.2020 00:04 12,6 C 12,2 C 11,1 C 77 % 1009,7 hPa 0,0 l/m 0 min 0 min 0 W/m 35,4 km/h (5 Bft) 97,87 %
15.01.2020 00:06 12,6 C 12,2 C 11,1 C 77 % 1009,7 hPa 0,0 l/m 0 min 0 min 0 W/m 3,2 km/h (1 Bft) 97,87 %
15.01.2020 00:08 12,6 C 12,2 C 11,1 C 77 % 1009,7 hPa 0,0 l/m 0 min 0 min 0 W/m 32,2 km/h (5 Bft) 97,83 %
15.01.2020 00:10 12,6 C 12,2 C 11,1 C 77 % 1009,7 hPa 0,0 l/m 0 min 0 min 0 W/m 41,8 km/h (6 Bft) 95,74 %
15.01.2020 00:12 12,6 C 12,2 C 11,1 C 77 % 1009,8 hPa 0,0 l/m 0 min 0 min 0 W/m 38,6 km/h (5 Bft) 97,87 %
15.01.2020 00:14 12,6 C 11,7 C 11,1 C 77 % 1009,7 hPa 0,0 l/m 0 min 0 min 0 W/m 3,2 km/h (1 Bft) 95,74 %
15.01.2020 00:16 12,6 C 11,7 C 11,1 C 77 % 1009,6 hPa 0,0 l/m 0 min 0 min 0 W/m 6,4 km/h (2 Bft) 95,74 %
15.01.2020 00:18 12,6 C 11,7 C 11,1 C 77 % 1009,7 hPa 0,0 l/m 0 min 0 min 0 W/m 38,6 km/h (5 Bft) 93,62 %
15.01.2020 00:20 12,6 C 11,7 C 11,1 C 77 % 1009,8 hPa 0,0 l/m 0 min 0 min 0 W/m 38,6 km/h (5 Bft) 93,48 %
15.01.2020 00:22 12,6 C 11,7 C 11,1 C 77 % 1009,8 hPa 0,0 l/m 0 min 0 min 0 W/m 29,0 km/h (5 Bft) 97,87 %
15.01.2020 00:24 12,6 C 11,7 C 11,1 C 77 % 1009,8 hPa 0,0 l/m 0 min 0 min 0 W/m 41,8 km/h (6 Bft) 93,62 %
15.01.2020 00:26 12,6 C 11,7 C 11,1 C 77 % 1009,6 hPa 0,0 l/m 0 min 0 min 0 W/m 32,2 km/h (5 Bft) 97,87 %
15.01.2020 00:28 12,6 C 11,7 C 11,1 C 77 % 1009,6 hPa 0,0 l/m 0 min 0 min 0 W/m 25,7 km/h (4 Bft) 97,87 %
15.01.2020 00:30 12,6 C 11,7 C 11,1 C 77 % 1009,8 hPa 0,0 l/m 0 min 0 min 0 W/m 19,3 km/h (3 Bft) 95,74 %
15.01.2020 00:32 12,6 C 11,7 C 11,1 C 77 % 1009,7 hPa 0,0 l/m 0 min 0 min 0 W/m 32,2 km/h (5 Bft) 95,65 %
15.01.2020 00:34 12,6 C 11,7 C 11,1 C 77 % 1009,7 hPa 0,0 l/m 0 min 0 min 0 W/m 9,7 km/h (2 Bft) 91,49 %
15.01.2020 00:36 12,6 C 11,7 C 11,1 C 77 % 1009,7 hPa 0,0 l/m 0 min 0 min 0 W/m 35,4 km/h (5 Bft) 91,49 %
15.01.2020 00:38 12,6 C 11,7 C 11,1 C 77 % 1009,8 hPa 0,0 l/m 0 min 0 min 0 W/m 41,8 km/h (6 Bft) 95,74 %
15.01.2020 00:40 12,6 C 11,7 C 11,1 C 77 % 1009,7 hPa 0,0 l/m 0 min 0 min 0 W/m 35,4 km/h (5 Bft) 95,74 %
15.01.2020 00:42 12,5 C 11,7 C 11,1 C 77 % 1009,7 hPa 0,0 l/m 0 min 0 min 0 W/m 29,0 km/h (5 Bft) 95,74 %
15.01.2020 00:44 12,5 C 11,7 C 11,1 C 77 % 1009,6 hPa 0,0 l/m 0 min 0 min 0 W/m 0,0 km/h (0 Bft) 95,65 %
15.01.2020 00:46 12,5 C 11,7 C 11,1 C 77 % 1009,7 hPa 0,0 l/m 0 min 0 min 0 W/m 0,0 km/h (0 Bft) 95,74 %
15.01.2020 00:48 12,5 C 11,7 C 11,1 C 77 % 1009,7 hPa 0,0 l/m 0 min 0 min 0 W/m 9,7 km/h (2 Bft) 93,62 %
15.01.2020 00:50 12,4 C 11,7 C 11,1 C 77 % 1009,8 hPa 0,0 l/m 0 min 0 min 0 W/m 19,3 km/h (3 Bft) 95,74 %
15.01.2020 00:52 12,4 C 11,7 C 11,1 C 77 % 1009,8 hPa 0,0 l/m 0 min 0 min 0 W/m 22,5 km/h (4 Bft) 95,74 %
15.01.2020 00:54 12,4 C 11,7 C 11,1 C 77 % 1009,8 hPa 0,0 l/m 0 min 0 min 0 W/m 19,3 km/h (3 Bft) 93,62 %
15.01.2020 00:56 12,4 C 11,7 C 11,1 C 77 % 1009,8 hPa 0,0 l/m 0 min 0 min 0 W/m 25,7 km/h (4 Bft) 95,65 %
15.01.2020 00:58 12,4 C 11,7 C 11,1 C 77 % 1009,9 hPa 0,0 l/m 0 min 0 min 0 W/m 32,2 km/h (5 Bft) 95,74 %
15.01.2020 01:00 12,4 C 11,7 C 11,1 C 77 % 1009,8 hPa 0,0 l/m 0 min 0 min 0 W/m 19,3 km/h (3 Bft) 93,62 %
15.01.2020 01:02 12,4 C 11,7 C 11,1 C 78 % 1009,8 hPa 0,0 l/m 0 min 0 min 0 W/m 0,0 km/h (0 Bft) 95,74 %
15.01.2020 01:04 12,4 C 11,7 C 11,1 C 78 % 1009,9 hPa 0,0 l/m 0 min 0 min 0 W/m 41,8 km/h (6 Bft) 93,62 %
15.01.2020 01:06 12,4 C 11,7 C 11,1 C 78 % 1009,9 hPa 0,0 l/m 0 min 0 min 0 W/m 32,2 km/h (5 Bft) 93,48 %
15.01.2020 01:08 12,4 C 11,7 C 11,1 C 78 % 1009,8 hPa 0,0 l/m 0 min 0 min 0 W/m 22,5 km/h (4 Bft) 95,74 %
15.01.2020 01:10 12,4 C 11,7 C 11,1 C 78 % 1009,9 hPa 0,0 l/m 0 min 0 min 0 W/m 35,4 km/h (5 Bft) 95,74 %
15.01.2020 01:12 12,4 C 11,7 C 11,1 C 78 % 1009,7 hPa 0,0 l/m 0 min 0 min 0 W/m 0,0 km/h (0 Bft) 97,87 %
15.01.2020 01:14 12,4 C 11,7 C 11,1 C 78 % 1009,8 hPa 0,0 l/m 0 min 0 min 0 W/m 16,1 km/h (3 Bft) 97,87 %
15.01.2020 01:16 12,4 C 11,7 C 10,6 C 78 % 1009,7 hPa 0,0 l/m 0 min 0 min 0 W/m 25,7 km/h (4 Bft) 100,00 %
15.01.2020 01:18 12,3 C 11,7 C 10,6 C 78 % 1009,8 hPa 0,0 l/m 0 min 0 min 0 W/m 41,8 km/h (6 Bft) 95,65 %
15.01.2020 01:20 12,3 C 11,7 C 11,1 C 78 % 1010,1 hPa 0,0 l/m 0 min 0 min 0 W/m 29,0 km/h (5 Bft) 100,00 %
15.01.2020 01:22 12,3 C 11,7 C 11,1 C 78 % 1009,7 hPa 0,0 l/m 0 min 0 min 0 W/m 25,7 km/h (4 Bft) 100,00 %
15.01.2020 01:24 12,3 C 11,7 C 10,6 C 78 % 1009,8 hPa 0,0 l/m 0 min 0 min 0 W/m 38,6 km/h (5 Bft) 100,00 %
15.01.2020 01:26 12,3 C 11,7 C 11,1 C 78 % 1009,8 hPa 0,0 l/m 0 min 0 min 0 W/m 3,2 km/h (1 Bft) 100,00 %
15.01.2020 01:28 12,3 C 11,7 C 11,1 C 78 % 1009,8 hPa 0,0 l/m 0 min 0 min 0 W/m 29,0 km/h (5 Bft) 97,87 %
15.01.2020 01:30 12,3 C 11,7 C 11,1 C 78 % 1009,8 hPa 0,0 l/m 0 min 0 min 0 W/m 29,0 km/h (5 Bft) 97,83 %
15.01.2020 01:32 12,3 C 11,7 C 11,1 C 79 % 1009,9 hPa 0,0 l/m 0 min 0 min 0 W/m 29,0 km/h (5 Bft) 100,00 %
15.01.2020 01:34 12,3 C 11,7 C 10,6 C 79 % 1009,8 hPa 0,0 l/m 0 min 0 min 0 W/m 3,2 km/h (1 Bft) 100,00 %
15.01.2020 01:36 12,3 C 11,7 C 10,6 C 79 % 1009,9 hPa 0,0 l/m 0 min 0 min 0 W/m 29,0 km/h (5 Bft) 100,00 %
15.01.2020 01:38 12,3 C 11,7 C 10,6 C 79 % 1009,8 hPa 0,0 l/m 0 min 0 min 0 W/m 3,2 km/h (1 Bft) 100,00 %
15.01.2020 01:40 12,3 C 11,7 C 11,1 C 79 % 1009,9 hPa 0,0 l/m 0 min 0 min 0 W/m 3,2 km/h (1 Bft) 100,00 %
15.01.2020 01:42 12,3 C 11,7 C 10,6 C 79 % 1009,9 hPa 0,0 l/m 0 min 0 min 0 W/m 3,2 km/h (1 Bft) 100,00 %
15.01.2020 01:44 12,3 C 11,7 C 11,1 C 79 % 1009,9 hPa 0,0 l/m 0 min 0 min 0 W/m 32,2 km/h (5 Bft) 100,00 %
15.01.2020 01:46 12,3 C 11,7 C 11,1 C 79 % 1009,8 hPa 0,0 l/m 0 min 0 min 0 W/m 32,2 km/h (5 Bft) 100,00 %
15.01.2020 01:48 12,3 C 11,7 C 10,6 C 79 % 1009,8 hPa 0,0 l/m 0 min 0 min 0 W/m 22,5 km/h (4 Bft) 97,87 %
15.01.2020 01:50 12,3 C 11,7 C 10,6 C 80 % 1009,8 hPa 0,0 l/m 0 min 0 min 0 W/m 16,1 km/h (3 Bft) 100,00 %
15.01.2020 01:52 12,3 C 11,7 C 10,6 C 80 % 1009,8 hPa 0,0 l/m 0 min 0 min 0 W/m 25,7 km/h (4 Bft) 100,00 %
15.01.2020 01:54 12,2 C 11,7 C 10,6 C 80 % 1009,8 hPa 0,0 l/m 0 min 0 min 0 W/m 0,0 km/h (0 Bft) 100,00 %
15.01.2020 01:56 12,2 C 11,1 C 10,6 C 80 % 1009,8 hPa 0,0 l/m 0 min 0 min 0 W/m 16,1 km/h (3 Bft) 100,00 %
15.01.2020 01:58 12,2 C 11,1 C 10,6 C 80 % 1009,9 hPa 0,0 l/m 0 min 0 min 0 W/m 3,2 km/h (1 Bft) 100,00 %
15.01.2020 02:00 12,2 C 11,1 C 10,6 C 80 % 1009,8 hPa 0,0 l/m 0 min 0 min 0 W/m 0,0 km/h (0 Bft) 100,00 %
15.01.2020 02:02 12,2 C 11,1 C 10,6 C 80 % 1009,8 hPa 0,0 l/m 0 min 0 min 0 W/m 3,2 km/h (1 Bft) 97,87 %
15.01.2020 02:04 12,2 C 11,7 C 10,6 C 80 % 1009,9 hPa 0,0 l/m 0 min 0 min 0 W/m 38,6 km/h (5 Bft) 100,00 %
15.01.2020 02:06 12,2 C 11,1 C 10,6 C 80 % 1009,8 hPa 0,0 l/m 0 min 0 min 0 W/m 19,3 km/h (3 Bft) 100,00 %
15.01.2020 02:08 12,2 C 11,1 C 10,6 C 80 % 1009,8 hPa 0,0 l/m 0 min 0 min 0 W/m 32,2 km/h (5 Bft) 97,87 %
15.01.2020 02:10 12,2 C 11,1 C 10,6 C 81 % 1009,9 hPa 0,0 l/m 0 min 0 min 0 W/m 25,7 km/h (4 Bft) 100,00 %
15.01.2020 02:12 12,2 C 11,1 C 10,6 C 81 % 1009,9 hPa 0,0 l/m 0 min 0 min 0 W/m 0,0 km/h (0 Bft) 100,00 %
15.01.2020 02:14 12,1 C 11,1 C 10,6 C 81 % 1009,8 hPa 0,0 l/m 0 min 0 min 0 W/m 0,0 km/h (0 Bft) 100,00 %
15.01.2020 02:16 12,1 C 11,1 C 10,6 C 81 % 1009,8 hPa 0,0 l/m 0 min 0 min 0 W/m 0,0 km/h (0 Bft) 100,00 %
15.01.2020 02:18 12,1 C 11,7 C 10,6 C 81 % 1009,9 hPa 0,0 l/m 0 min 0 min 0 W/m 22,5 km/h (4 Bft) 85,11 %
15.01.2020 02:20 12,1 C 11,7 C 10,6 C 81 % 1009,7 hPa 0,0 l/m 0 min 0 min 0 W/m 0,0 km/h (0 Bft) 69,57 %
15.01.2020 02:22 12,1 C 11,1 C 10,6 C 81 % 1009,8 hPa 0,0 l/m 0 min 0 min 0 W/m 0,0 km/h (0 Bft) 97,87 %
15.01.2020 02:24 12,1 C 11,1 C 10,6 C 81 % 1010,0 hPa 0,0 l/m 0 min 0 min 0 W/m 32,2 km/h (5 Bft) 97,87 %
15.01.2020 02:26 12,1 C 11,1 C 10,6 C 81 % 1009,8 hPa 0,0 l/m 0 min 0 min 0 W/m 3,2 km/h (1 Bft) 97,87 %
15.01.2020 02:28 12,1 C 11,1 C 10,6 C 81 % 1009,8 hPa 0,0 l/m 0 min 0 min 0 W/m 0,0 km/h (0 Bft) 95,65 %
15.01.2020 02:30 12,1 C 11,1 C 10,6 C 81 % 1010,0 hPa 0,0 l/m 0 min 0 min 0 W/m 0,0 km/h (0 Bft) 97,87 %
15.01.2020 02:32 12,1 C 11,1 C 10,6 C 82 % 1009,9 hPa 0,0 l/m 0 min 0 min 0 W/m 0,0 km/h (0 Bft) 97,87 %
15.01.2020 02:34 12,1 C 11,1 C 10,6 C 82 % 1010,0 hPa 0,0 l/m 0 min 0 min 0 W/m 3,2 km/h (1 Bft) 95,74 %
15.01.2020 02:36 12,1 C 11,1 C 10,6 C 82 % 1010,1 hPa 0,0 l/m 0 min 0 min 0 W/m 0,0 km/h (0 Bft) 95,74 %
15.01.2020 02:38 12,1 C 11,1 C 10,6 C 82 % 1010,1 hPa 0,0 l/m 0 min 0 min 0 W/m 0,0 km/h (0 Bft) 97,87 %
15.01.2020 02:40 12,1 C 11,1 C 10,6 C 82 % 1010,1 hPa 0,0 l/m 0 min 0 min 0 W/m 22,5 km/h (4 Bft) 97,83 %
15.01.2020 02:42 12,1 C 11,1 C 10,6 C 82 % 1010,1 hPa 0,0 l/m 0 min 0 min 0 W/m 22,5 km/h (4 Bft) 97,87 %
15.01.2020 02:44 12,1 C 11,1 C 10,6 C 82 % 1010,0 hPa 0,0 l/m 0 min 0 min 0 W/m 3,2 km/h (1 Bft) 97,87 %
15.01.2020 02:46 12,1 C 11,1 C 10,6 C 82 % 1010,0 hPa 0,0 l/m 0 min 0 min 0 W/m 25,7 km/h (4 Bft) 97,87 %
15.01.2020 02:48 12,0 C 11,1 C 10,6 C 82 % 1010,2 hPa 0,0 l/m 0 min 0 min 0 W/m 0,0 km/h (0 Bft) 97,87 %
15.01.2020 02:50 12,1 C 11,1 C 10,6 C 82 % 1010,1 hPa 0,0 l/m 0 min 0 min 0 W/m 0,0 km/h (0 Bft) 97,87 %
15.01.2020 02:52 12,1 C 11,1 C 10,6 C 82 % 1010,2 hPa 0,0 l/m 0 min 0 min 0 W/m 35,4 km/h (5 Bft) 95,65 %
15.01.2020 02:54 12,0 C 11,1 C 10,6 C 82 % 1010,2 hPa 0,0 l/m 0 min 0 min 0 W/m 19,3 km/h (3 Bft) 95,74 %
15.01.2020 02:56 12,0 C 11,1 C 10,6 C 82 % 1010,3 hPa 0,0 l/m 0 min 0 min 0 W/m 22,5 km/h (4 Bft) 95,74 %
15.01.2020 02:58 12,0 C 11,1 C 10,6 C 82 % 1010,3 hPa 0,0 l/m 0 min 0 min 0 W/m 32,2 km/h (5 Bft) 97,87 %
15.01.2020 03:00 12,1 C 11,7 C 10,6 C 82 % 1010,3 hPa 0,0 l/m 0 min 0 min 0 W/m 25,7 km/h (4 Bft) 97,87 %
15.01.2020 03:02 12,0 C 11,7 C 10,6 C 82 % 1010,2 hPa 0,0 l/m 0 min 0 min 0 W/m 25,7 km/h (4 Bft) 95,65 %
15.01.2020 03:04 12,1 C 11,7 C 10,6 C 81 % 1010,3 hPa 0,0 l/m 0 min 0 min 0 W/m 12,9 km/h (3 Bft) 100,00 %
15.01.2020 03:06 12,1 C 11,1 C 10,6 C 81 % 1010,2 hPa 0,0 l/m 0 min 0 min 0 W/m 3,2 km/h (1 Bft) 93,62 %
15.01.2020 03:08 12,1 C 11,1 C 10,6 C 81 % 1010,2 hPa 0,0 l/m 0 min 0 min 0 W/m 12,9 km/h (3 Bft) 100,00 %
15.01.2020 03:10 12,1 C 11,7 C 10,6 C 81 % 1010,2 hPa 0,0 l/m 0 min 0 min 0 W/m 35,4 km/h (5 Bft) 100,00 %
15.01.2020 03:12 12,1 C 11,7 C 10,6 C 81 % 1010,1 hPa 0,0 l/m 0 min 0 min 0 W/m 25,7 km/h (4 Bft) 97,87 %
15.01.2020 03:14 12,1 C 11,1 C 10,6 C 81 % 1010,2 hPa 0,0 l/m 0 min 0 min 0 W/m 25,7 km/h (4 Bft) 95,65 %
15.01.2020 03:16 12,1 C 11,1 C 10,6 C 81 % 1010,2 hPa 0,0 l/m 0 min 0 min 0 W/m 3,2 km/h (1 Bft) 97,87 %
15.01.2020 03:18 12,1 C 11,1 C 10,6 C 80 % 1010,2 hPa 0,0 l/m 0 min 0 min 0 W/m 25,7 km/h (4 Bft) 97,87 %
15.01.2020 03:20 12,1 C 11,1 C 10,6 C 80 % 1010,2 hPa 0,0 l/m 0 min 0 min 0 W/m 25,7 km/h (4 Bft) 95,74 %
15.01.2020 03:22 12,1 C 11,1 C 10,6 C 80 % 1010,1 hPa 0,0 l/m 0 min 0 min 0 W/m 19,3 km/h (3 Bft) 97,87 %
15.01.2020 03:24 12,1 C 11,1 C 10,6 C 80 % 1010,2 hPa 0,0 l/m 0 min 0 min 0 W/m 12,9 km/h (3 Bft) 97,87 %
15.01.2020 03:26 12,1 C 11,1 C 10,6 C 80 % 1010,1 hPa 0,0 l/m 0 min 0 min 0 W/m 35,4 km/h (5 Bft) 97,83 %
15.01.2020 03:28 12,1 C 11,1 C 10,6 C 80 % 1010,1 hPa 0,0 l/m 0 min 0 min 0 W/m 3,2 km/h (1 Bft) 97,87 %
15.01.2020 03:30 12,1 C 11,1 C 10,6 C 80 % 1010,0 hPa 0,0 l/m 0 min 0 min 0 W/m 19,3 km/h (3 Bft) 97,87 %
15.01.2020 03:32 12,1 C 11,1 C 10,6 C 80 % 1010,0 hPa 0,0 l/m 0 min 0 min 0 W/m 3,2 km/h (1 Bft) 97,87 %
15.01.2020 03:34 12,1 C 11,1 C 10,6 C 80 % 1010,0 hPa 0,0 l/m 0 min 0 min 0 W/m 16,1 km/h (3 Bft) 97,87 %
15.01.2020 03:36 12,1 C 11,1 C 10,6 C 80 % 1010,0 hPa 0,0 l/m 0 min 0 min 0 W/m 25,7 km/h (4 Bft) 97,87 %
15.01.2020 03:38 12,1 C 11,1 C 10,6 C 79 % 1009,9 hPa 0,0 l/m 0 min 0 min 0 W/m 3,2 km/h (1 Bft) 97,83 %
15.01.2020 03:40 12,0 C 11,1 C 10,6 C 79 % 1010,0 hPa 0,0 l/m 0 min 0 min 0 W/m 0,0 km/h (0 Bft) 97,87 %
15.01.2020 03:42 12,0 C 11,1 C 10,6 C 79 % 1010,0 hPa 0,0 l/m 0 min 0 min 0 W/m 0,0 km/h (0 Bft) 97,87 %
15.01.2020 03:44 12,0 C 11,1 C 10,6 C 79 % 1010,0 hPa 0,0 l/m 0 min 0 min 0 W/m 0,0 km/h (0 Bft) 97,87 %
15.01.2020 03:46 12,0 C 11,1 C 10,6 C 80 % 1010,1 hPa 0,0 l/m 0 min 0 min 0 W/m 19,3 km/h (3 Bft) 95,74 %
15.01.2020 03:48 11,9 C 11,1 C 10,0 C 80 % 1010,0 hPa 0,0 l/m 0 min 0 min 0 W/m 3,2 km/h (1 Bft) 95,74 %
15.01.2020 03:50 11,9 C 11,1 C 10,6 C 79 % 1010,1 hPa 0,0 l/m 0 min 0 min 0 W/m 3,2 km/h (1 Bft) 93,48 %
15.01.2020 03:52 11,9 C 11,1 C 10,6 C 79 % 1010,0 hPa 0,0 l/m 0 min 0 min 0 W/m 22,5 km/h (4 Bft) 95,74 %
15.01.2020 03:54 11,9 C 11,1 C 10,0 C 79 % 1010,0 hPa 0,0 l/m 0 min 0 min 0 W/m 12,9 km/h (3 Bft) 93,62 %
15.01.2020 03:56 11,9 C 11,1 C 10,0 C 79 % 1010,0 hPa 0,0 l/m 0 min 0 min 0 W/m 3,2 km/h (1 Bft) 95,74 %
15.01.2020 03:58 11,8 C 11,1 C 10,0 C 80 % 1009,9 hPa 0,0 l/m 0 min 0 min 0 W/m 25,7 km/h (4 Bft) 97,87 %
15.01.2020 04:00 11,9 C 11,1 C 10,0 C 79 % 1009,9 hPa 0,0 l/m 0 min 0 min 0 W/m 29,0 km/h (5 Bft) 97,87 %
15.01.2020 04:02 11,8 C 11,1 C 10,0 C 80 % 1010,0 hPa 0,0 l/m 0 min 0 min 0 W/m 22,5 km/h (4 Bft) 100,00 %
15.01.2020 04:04 11,8 C 11,1 C 10,0 C 80 % 1010,0 hPa 0,0 l/m 0 min 0 min 0 W/m 0,0 km/h (0 Bft) 97,87 %
15.01.2020 04:06 11,8 C 11,1 C 10,0 C 80 % 1010,0 hPa 0,0 l/m 0 min 0 min 0 W/m 6,4 km/h (2 Bft) 97,87 %
15.01.2020 04:08 11,8 C 10,6 C 10,0 C 80 % 1010,0 hPa 0,0 l/m 0 min 0 min 0 W/m 3,2 km/h (1 Bft) 97,87 %
15.01.2020 04:10 11,8 C 10,6 C 10,0 C 80 % 1010,0 hPa 0,0 l/m 0 min 0 min 0 W/m 6,4 km/h (2 Bft) 100,00 %
15.01.2020 04:12 11,8 C 10,6 C 10,0 C 80 % 1010,0 hPa 0,0 l/m 0 min 0 min 0 W/m 0,0 km/h (0 Bft) 97,87 %
15.01.2020 04:14 11,7 C 10,6 C 10,0 C 80 % 1010,1 hPa 0,0 l/m 0 min 0 min 0 W/m 0,0 km/h (0 Bft) 97,87 %
15.01.2020 04:16 11,7 C 10,6 C 10,0 C 80 % 1010,1 hPa 0,0 l/m 0 min 0 min 0 W/m 0,0 km/h (0 Bft) 97,87 %
15.01.2020 04:18 11,7 C 10,6 C 10,0 C 80 % 1010,1 hPa 0,0 l/m 0 min 0 min 0 W/m 12,9 km/h (3 Bft) 95,74 %
15.01.2020 04:20 11,7 C 10,6 C 10,0 C 80 % 1010,1 hPa 0,0 l/m 0 min 0 min 0 W/m 0,0 km/h (0 Bft) 97,87 %
15.01.2020 04:22 11,6 C 10,6 C 10,0 C 80 % 1010,2 hPa 0,0 l/m 0 min 0 min 0 W/m 0,0 km/h (0 Bft) 97,83 %
15.01.2020 04:24 11,6 C 10,6 C 10,0 C 80 % 1010,2 hPa 0,0 l/m 0 min 0 min 0 W/m 0,0 km/h (0 Bft) 95,74 %
15.01.2020 04:26 11,6 C 10,6 C 10,0 C 80 % 1010,2 hPa 0,0 l/m 0 min 0 min 0 W/m 3,2 km/h (1 Bft) 97,87 %
15.01.2020 04:28 11,6 C 10,6 C 10,0 C 80 % 1010,2 hPa 0,0 l/m 0 min 0 min 0 W/m 0,0 km/h (0 Bft) 97,87 %
15.01.2020 04:30 11,5 C 10,6 C 10,0 C 80 % 1010,2 hPa 0,0 l/m 0 min 0 min 0 W/m 0,0 km/h (0 Bft) 97,87 %
15.01.2020 04:32 11,5 C 10,6 C 10,0 C 80 % 1010,1 hPa 0,0 l/m 0 min 0 min 0 W/m 0,0 km/h (0 Bft) 97,87 %
15.01.2020 04:34 11,4 C 10,6 C 10,0 C 80 % 1010,2 hPa 0,0 l/m 0 min 0 min 0 W/m 22,5 km/h (4 Bft) 97,83 %
15.01.2020 04:36 11,4 C 11,1 C 10,0 C 81 % 1010,2 hPa 0,0 l/m 0 min 0 min 0 W/m 38,6 km/h (5 Bft) 97,87 %
15.01.2020 04:38 11,5 C 11,1 C 10,0 C 81 % 1010,2 hPa 0,0 l/m 0 min 0 min 0 W/m 29,0 km/h (5 Bft) 100,00 %
15.01.2020 04:40 11,5 C 10,6 C 10,0 C 81 % 1010,3 hPa 0,0 l/m 0 min 0 min 0 W/m 16,1 km/h (3 Bft) 95,74 %
15.01.2020 04:42 11,5 C 10,6 C 10,0 C 81 % 1010,3 hPa 0,0 l/m 0 min 0 min 0 W/m 25,7 km/h (4 Bft) 95,74 %
15.01.2020 04:44 11,5 C 10,6 C 10,0 C 81 % 1010,3 hPa 0,0 l/m 0 min 0 min 0 W/m 35,4 km/h (5 Bft) 97,87 %
15.01.2020 04:46 11,6 C 10,6 C 10,0 C 81 % 1010,4 hPa 0,0 l/m 0 min 0 min 0 W/m 12,9 km/h (3 Bft) 97,83 %
15.01.2020 04:48 11,6 C 10,6 C 10,0 C 81 % 1010,3 hPa 0,0 l/m 0 min 0 min 0 W/m 25,7 km/h (4 Bft) 100,00 %
15.01.2020 04:50 11,6 C 10,6 C 10,0 C 81 % 1010,4 hPa 0,0 l/m 0 min 0 min 0 W/m 38,6 km/h (5 Bft) 100,00 %
15.01.2020 04:52 11,6 C 10,6 C 10,0 C 81 % 1010,3 hPa 0,0 l/m 0 min 0 min 0 W/m 35,4 km/h (5 Bft) 97,87 %
15.01.2020 04:54 11,6 C 10,6 C 10,0 C 81 % 1010,4 hPa 0,0 l/m 0 min 0 min 0 W/m 22,5 km/h (4 Bft) 100,00 %
15.01.2020 04:56 11,6 C 10,6 C 10,0 C 81 % 1010,4 hPa 0,0 l/m 0 min 0 min 0 W/m 22,5 km/h (4 Bft) 100,00 %
15.01.2020 04:58 11,6 C 10,6 C 10,0 C 81 % 1010,4 hPa 0,0 l/m 0 min 0 min 0 W/m 16,1 km/h (3 Bft) 100,00 %
15.01.2020 05:00 11,6 C 10,6 C 10,0 C 81 % 1010,4 hPa 0,0 l/m 0 min 0 min 0 W/m 35,4 km/h (5 Bft) 100,00 %
15.01.2020 05:02 11,6 C 10,6 C 10,0 C 81 % 1010,5 hPa 0,0 l/m 0 min 0 min 0 W/m 3,2 km/h (1 Bft) 97,87 %
15.01.2020 05:04 11,6 C 10,6 C 10,0 C 82 % 1010,4 hPa 0,0 l/m 0 min 0 min 0 W/m 32,2 km/h (5 Bft) 95,74 %
15.01.2020 05:06 11,5 C 10,6 C 10,0 C 82 % 1010,5 hPa 0,0 l/m 0 min 0 min 0 W/m 22,5 km/h (4 Bft) 97,87 %
15.01.2020 05:08 11,5 C 10,6 C 10,0 C 82 % 1010,5 hPa 0,0 l/m 0 min 0 min 0 W/m 19,3 km/h (3 Bft) 97,83 %
15.01.2020 05:10 11,5 C 10,6 C 10,0 C 82 % 1010,5 hPa 0,0 l/m 0 min 0 min 0 W/m 25,7 km/h (4 Bft) 97,87 %
15.01.2020 05:12 11,5 C 10,6 C 10,0 C 82 % 1010,6 hPa 0,0 l/m 0 min 0 min 0 W/m 16,1 km/h (3 Bft) 97,87 %
15.01.2020 05:14 11,5 C 10,6 C 10,0 C 82 % 1010,6 hPa 0,0 l/m 0 min 0 min 0 W/m 6,4 km/h (2 Bft) 97,87 %
15.01.2020 05:16 11,5 C 10,6 C 10,0 C 82 % 1010,6 hPa 0,0 l/m 0 min 0 min 0 W/m 19,3 km/h (3 Bft) 95,74 %
15.01.2020 05:18 11,5 C 10,6 C 10,0 C 82 % 1010,6 hPa 0,0 l/m 0 min 0 min 0 W/m 16,1 km/h (3 Bft) 97,87 %
15.01.2020 05:20 11,4 C 10,6 C 10,0 C 82 % 1010,6 hPa 0,0 l/m 0 min 0 min 0 W/m 29,0 km/h (5 Bft) 97,83 %
15.01.2020 05:22 11,4 C 10,6 C 10,0 C 82 % 1010,6 hPa 0,0 l/m 0 min 0 min 0 W/m 25,7 km/h (4 Bft) 95,74 %
15.01.2020 05:24 11,4 C 10,6 C 10,0 C 82 % 1010,7 hPa 0,0 l/m 0 min 0 min 0 W/m 29,0 km/h (5 Bft) 97,87 %
15.01.2020 05:26 11,4 C 10,6 C 10,0 C 82 % 1010,6 hPa 0,0 l/m 0 min 0 min 0 W/m 22,5 km/h (4 Bft) 97,87 %
15.01.2020 05:28 11,4 C 10,6 C 10,0 C 82 % 1010,6 hPa 0,0 l/m 0 min 0 min 0 W/m 25,7 km/h (4 Bft) 95,74 %
15.01.2020 05:30 11,4 C 10,6 C 10,0 C 82 % 1010,6 hPa 0,0 l/m 0 min 0 min 0 W/m 19,3 km/h (3 Bft) 97,83 %
15.01.2020 05:32 11,4 C 10,6 C 10,0 C 82 % 1010,6 hPa 0,0 l/m 0 min 0 min 0 W/m 19,3 km/h (3 Bft) 95,74 %
15.01.2020 05:34 11,4 C 10,6 C 10,0 C 82 % 1010,7 hPa 0,0 l/m 0 min 0 min 0 W/m 0,0 km/h (0 Bft) 91,49 %
15.01.2020 05:36 11,4 C 10,6 C 10,0 C 82 % 1010,6 hPa 0,0 l/m 0 min 0 min 0 W/m 0,0 km/h (0 Bft) 97,87 %
15.01.2020 05:38 11,4 C 10,6 C 10,0 C 82 % 1010,7 hPa 0,0 l/m 0 min 0 min 0 W/m 25,7 km/h (4 Bft) 97,87 %
15.01.2020 05:40 11,4 C 10,6 C 10,0 C 82 % 1010,6 hPa 0,0 l/m 0 min 0 min 0 W/m 19,3 km/h (3 Bft) 97,87 %
15.01.2020 05:42 11,4 C 10,6 C 10,0 C 81 % 1010,6 hPa 0,0 l/m 0 min 0 min 0 W/m 38,6 km/h (5 Bft) 95,74 %
15.01.2020 05:44 11,4 C 10,6 C 10,0 C 81 % 1010,6 hPa 0,0 l/m 0 min 0 min 0 W/m 16,1 km/h (3 Bft) 97,83 %
15.01.2020 05:46 11,3 C 10,6 C 10,0 C 81 % 1010,5 hPa 0,0 l/m 0 min 0 min 0 W/m 29,0 km/h (5 Bft) 95,74 %
15.01.2020 05:48 11,3 C 10,6 C 10,0 C 81 % 1010,6 hPa 0,0 l/m 0 min 0 min 0 W/m 12,9 km/h (3 Bft) 97,87 %
15.01.2020 05:50 11,3 C 10,6 C 10,0 C 81 % 1010,6 hPa 0,0 l/m 0 min 0 min 0 W/m 22,5 km/h (4 Bft) 97,87 %
15.01.2020 05:52 11,3 C 10,6 C 10,0 C 81 % 1010,6 hPa 0,0 l/m 0 min 0 min 0 W/m 19,3 km/h (3 Bft) 97,87 %
15.01.2020 05:54 11,3 C 10,6 C 10,0 C 81 % 1010,6 hPa 0,0 l/m 0 min 0 min 0 W/m 29,0 km/h (5 Bft) 97,83 %
15.01.2020 05:56 11,3 C 10,6 C 10,0 C 81 % 1010,7 hPa 0,0 l/m 0 min 0 min 0 W/m 16,1 km/h (3 Bft) 93,62 %
15.01.2020 05:58 11,3 C 10,6 C 10,0 C 81 % 1010,7 hPa 0,0 l/m 0 min 0 min 0 W/m 12,9 km/h (3 Bft) 95,74 %
15.01.2020 06:00 11,3 C 10,6 C 10,0 C 81 % 1010,7 hPa 0,0 l/m 0 min 0 min 0 W/m 19,3 km/h (3 Bft) 95,74 %
15.01.2020 06:02 11,3 C 10,6 C 10,0 C 81 % 1010,6 hPa 0,0 l/m 0 min 0 min 0 W/m 22,5 km/h (4 Bft) 97,87 %
15.01.2020 06:04 11,3 C 10,6 C 10,0 C 81 % 1010,6 hPa 0,0 l/m 0 min 0 min 0 W/m 16,1 km/h (3 Bft) 97,87 %
15.01.2020 06:06 11,3 C 10,6 C 9,4 C 81 % 1010,6 hPa 0,0 l/m 0 min 0 min 0 W/m 0,0 km/h (0 Bft) 95,65 %
15.01.2020 06:08 11,3 C 10,6 C 9,4 C 81 % 1010,6 hPa 0,0 l/m 0 min 0 min 0 W/m 3,2 km/h (1 Bft) 95,74 %
15.01.2020 06:10 11,3 C 10,6 C 9,4 C 81 % 1010,6 hPa 0,0 l/m 0 min 0 min 0 W/m 35,4 km/h (5 Bft) 97,87 %
15.01.2020 06:12 11,3 C 10,6 C 10,0 C 81 % 1010,5 hPa 0,0 l/m 0 min 0 min 0 W/m 19,3 km/h (3 Bft) 97,87 %
15.01.2020 06:14 11,2 C 10,6 C 10,0 C 81 % 1010,5 hPa 0,0 l/m 0 min 0 min 0 W/m 29,0 km/h (5 Bft) 93,62 %
15.01.2020 06:16 11,2 C 10,6 C 10,0 C 80 % 1010,5 hPa 0,0 l/m 0 min 0 min 0 W/m 35,4 km/h (5 Bft) 97,87 %
15.01.2020 06:18 11,2 C 10,6 C 10,0 C 80 % 1010,5 hPa 0,0 l/m 0 min 0 min 0 W/m 25,7 km/h (4 Bft) 97,83 %
15.01.2020 06:20 11,2 C 10,6 C 10,0 C 80 % 1010,5 hPa 0,0 l/m 0 min 0 min 0 W/m 6,4 km/h (2 Bft) 97,87 %
15.01.2020 06:22 11,2 C 10,6 C 10,0 C 80 % 1010,5 hPa 0,0 l/m 0 min 0 min 0 W/m 38,6 km/h (5 Bft) 97,87 %
15.01.2020 06:24 11,2 C 10,6 C 10,0 C 80 % 1010,6 hPa 0,0 l/m 0 min 0 min 0 W/m 22,5 km/h (4 Bft) 97,87 %
15.01.2020 06:26 11,3 C 10,6 C 10,0 C 80 % 1010,4 hPa 0,0 l/m 0 min 0 min 0 W/m 29,0 km/h (5 Bft) 93,62 %
15.01.2020 06:28 11,3 C 10,6 C 10,0 C 80 % 1010,4 hPa 0,0 l/m 0 min 0 min 0 W/m 3,2 km/h (1 Bft) 95,74 %
15.01.2020 06:30 11,3 C 10,6 C 10,0 C 80 % 1010,5 hPa 0,0 l/m 0 min 0 min 0 W/m 29,0 km/h (5 Bft) 97,83 %
15.01.2020 06:32 11,3 C 10,6 C 10,0 C 79 % 1010,4 hPa 0,0 l/m 0 min 0 min 0 W/m 25,7 km/h (4 Bft) 97,87 %
15.01.2020 06:34 11,2 C 10,6 C 9,4 C 79 % 1010,5 hPa 0,0 l/m 0 min 0 min 0 W/m 29,0 km/h (5 Bft) 97,87 %
15.01.2020 06:36 11,3 C 10,6 C 9,4 C 79 % 1010,5 hPa 0,0 l/m 0 min 0 min 0 W/m 29,0 km/h (5 Bft) 100,00 %
15.01.2020 06:38 11,3 C 10,6 C 10,0 C 79 % 1010,5 hPa 0,0 l/m 0 min 0 min 0 W/m 32,2 km/h (5 Bft) 100,00 %
15.01.2020 06:40 11,2 C 10,6 C 9,4 C 79 % 1010,5 hPa 0,0 l/m 0 min 0 min 0 W/m 35,4 km/h (5 Bft) 100,00 %
15.01.2020 06:42 11,2 C 10,6 C 10,0 C 79 % 1010,6 hPa 0,0 l/m 0 min 0 min 0 W/m 32,2 km/h (5 Bft) 100,00 %
15.01.2020 06:44 11,2 C 10,6 C 10,0 C 79 % 1010,6 hPa 0,0 l/m 0 min 0 min 0 W/m 16,1 km/h (3 Bft) 100,00 %
15.01.2020 06:46 11,2 C 10,6 C 10,0 C 79 % 1010,5 hPa 0,0 l/m 0 min 0 min 0 W/m 6,4 km/h (2 Bft) 100,00 %
15.01.2020 06:48 11,2 C 10,6 C 10,0 C 78 % 1010,7 hPa 0,0 l/m 0 min 0 min 0 W/m 38,6 km/h (5 Bft) 100,00 %
15.01.2020 06:50 11,2 C 10,6 C 10,0 C 78 % 1010,6 hPa 0,0 l/m 0 min 0 min 0 W/m 35,4 km/h (5 Bft) 100,00 %
15.01.2020 06:52 11,2 C 10,6 C 9,4 C 78 % 1010,7 hPa 0,0 l/m 0 min 0 min 0 W/m 6,4 km/h (2 Bft) 100,00 %
15.01.2020 06:54 11,2 C 10,6 C 9,4 C 78 % 1010,7 hPa 0,0 l/m 0 min 0 min 0 W/m 0,0 km/h (0 Bft) 100,00 %
15.01.2020 06:56 11,2 C 10,6 C 9,4 C 78 % 1010,8 hPa 0,0 l/m 0 min 0 min 0 W/m 16,1 km/h (3 Bft) 100,00 %
15.01.2020 06:58 11,2 C 10,6 C 9,4 C 78 % 1010,8 hPa 0,0 l/m 0 min 0 min 0 W/m 3,2 km/h (1 Bft) 100,00 %
15.01.2020 07:00 11,2 C 10,6 C 9,4 C 78 % 1010,8 hPa 0,0 l/m 0 min 0 min 0 W/m 0,0 km/h (0 Bft) 100,00 %
15.01.2020 07:02 11,2 C 10,6 C 9,4 C 77 % 1010,9 hPa 0,0 l/m 0 min 0 min 0 W/m 0,0 km/h (0 Bft) 100,00 %
15.01.2020 07:04 11,2 C 10,6 C 9,4 C 77 % 1010,9 hPa 0,0 l/m 0 min 0 min 0 W/m 29,0 km/h (5 Bft) 100,00 %
15.01.2020 07:06 11,2 C 10,6 C 10,0 C 77 % 1010,9 hPa 0,0 l/m 0 min 0 min 0 W/m 32,2 km/h (5 Bft) 100,00 %
15.01.2020 07:08 11,2 C 10,6 C 10,0 C 77 % 1010,9 hPa 0,0 l/m 0 min 0 min 0 W/m 19,3 km/h (3 Bft) 100,00 %
15.01.2020 07:10 11,2 C 10,6 C 9,4 C 77 % 1010,8 hPa 0,0 l/m 0 min 0 min 0 W/m 25,7 km/h (4 Bft) 100,00 %
15.01.2020 07:12 11,2 C 10,6 C 10,0 C 77 % 1010,8 hPa 0,0 l/m 0 min 0 min 0 W/m 0,0 km/h (0 Bft) 100,00 %
15.01.2020 07:14 11,2 C 10,6 C 9,4 C 77 % 1010,8 hPa 0,0 l/m 0 min 0 min 0 W/m 0,0 km/h (0 Bft) 100,00 %
15.01.2020 07:16 11,2 C 10,6 C 9,4 C 77 % 1010,8 hPa 0,0 l/m 0 min 0 min 0 W/m 0,0 km/h (0 Bft) 100,00 %
15.01.2020 07:18 11,2 C 10,6 C 9,4 C 77 % 1010,8 hPa 0,0 l/m 0 min 0 min 0 W/m 3,2 km/h (1 Bft) 97,87 %
15.01.2020 07:20 11,2 C 10,6 C 9,4 C 77 % 1010,8 hPa 0,0 l/m 0 min 0 min 0 W/m 0,0 km/h (0 Bft) 95,74 %
15.01.2020 07:22 11,2 C 10,6 C 9,4 C 77 % 1010,9 hPa 0,0 l/m 0 min 0 min 0 W/m 22,5 km/h (4 Bft) 97,87 %
15.01.2020 07:24 11,1 C 10,6 C 9,4 C 77 % 1010,9 hPa 0,0 l/m 0 min 0 min 0 W/m 0,0 km/h (0 Bft) 97,87 %
15.01.2020 07:26 11,1 C 10,6 C 9,4 C 77 % 1010,9 hPa 0,0 l/m 0 min 0 min 0 W/m 0,0 km/h (0 Bft) 97,87 %
15.01.2020 07:28 11,1 C 10,6 C 9,4 C 76 % 1010,9 hPa 0,0 l/m 0 min 0 min 0 W/m 29,0 km/h (5 Bft) 95,65 %
15.01.2020 07:30 11,1 C 10,6 C 9,4 C 76 % 1010,9 hPa 0,0 l/m 0 min 0 min 0 W/m 25,7 km/h (4 Bft) 97,87 %
15.01.2020 07:32 11,1 C 10,6 C 9,4 C 76 % 1010,8 hPa 0,0 l/m 0 min 0 min 0 W/m 22,5 km/h (4 Bft) 97,87 %
15.01.2020 07:34 11,1 C 10,0 C 9,4 C 76 % 1010,8 hPa 0,0 l/m 0 min 0 min 0 W/m 22,5 km/h (4 Bft) 97,87 %
15.01.2020 07:36 11,1 C 10,0 C 9,4 C 76 % 1010,9 hPa 0,0 l/m 0 min 0 min 0 W/m 22,5 km/h (4 Bft) 97,87 %
15.01.2020 07:38 11,1 C 10,0 C 9,4 C 76 % 1010,8 hPa 0,0 l/m 0 min 0 min 0 W/m 29,0 km/h (5 Bft) 97,87 %
15.01.2020 07:40 11,1 C 10,0 C 9,4 C 76 % 1011,0 hPa 0,0 l/m 0 min 0 min 0 W/m 22,5 km/h (4 Bft) 97,83 %
15.01.2020 07:42 11,1 C 10,0 C 9,4 C 77 % 1010,9 hPa 0,0 l/m 0 min 0 min 0 W/m 0,0 km/h (0 Bft) 95,74 %
15.01.2020 07:44 11,0 C 10,0 C 9,4 C 76 % 1010,9 hPa 0,0 l/m 0 min 0 min 0 W/m 3,2 km/h (1 Bft) 97,87 %
15.01.2020 07:46 11,0 C 10,0 C 9,4 C 76 % 1010,8 hPa 0,0 l/m 0 min 0 min 0 W/m 19,3 km/h (3 Bft) 97,87 %
15.01.2020 07:48 10,9 C 10,0 C 9,4 C 77 % 1010,9 hPa 0,0 l/m 0 min 0 min 0 W/m 29,0 km/h (5 Bft) 97,87 %
15.01.2020 07:50 10,9 C 10,0 C 9,4 C 77 % 1010,9 hPa 0,0 l/m 0 min 0 min 0 W/m 0,0 km/h (0 Bft) 95,74 %
15.01.2020 07:52 10,9 C 10,0 C 9,4 C 77 % 1011,0 hPa 0,0 l/m 0 min 0 min 0 W/m 25,7 km/h (4 Bft) 95,65 %
15.01.2020 07:54 10,9 C 10,0 C 9,4 C 77 % 1010,9 hPa 0,0 l/m 0 min 0 min 0 W/m 29,0 km/h (5 Bft) 91,49 %
15.01.2020 07:56 10,8 C 10,0 C 9,4 C 77 % 1010,9 hPa 0,0 l/m 0 min 0 min 0 W/m 16,1 km/h (3 Bft) 93,62 %
15.01.2020 07:58 10,8 C 10,0 C 8,9 C 77 % 1010,9 hPa 0,0 l/m 0 min 0 min 0 W/m 0,0 km/h (0 Bft) 95,74 %
15.01.2020 08:00 10,8 C 10,0 C 8,9 C 77 % 1010,9 hPa 0,0 l/m 0 min 0 min 0 W/m 22,5 km/h (4 Bft) 95,74 %
15.01.2020 08:02 10,8 C 9,4 C 8,9 C 77 % 1010,9 hPa 0,0 l/m 0 min 0 min 0 W/m 16,1 km/h (3 Bft) 95,65 %
15.01.2020 08:04 10,7 C 10,0 C 8,9 C 77 % 1010,9 hPa 0,0 l/m 0 min 0 min 0 W/m 22,5 km/h (4 Bft) 95,74 %
15.01.2020 08:06 10,7 C 9,4 C 8,9 C 77 % 1010,9 hPa 0,0 l/m 0 min 0 min 0 W/m 3,2 km/h (1 Bft) 95,74 %
15.01.2020 08:08 10,7 C 9,4 C 8,9 C 77 % 1011,0 hPa 0,0 l/m 0 min 0 min 0 W/m 9,7 km/h (2 Bft) 95,74 %
15.01.2020 08:10 10,6 C 9,4 C 8,9 C 77 % 1011,0 hPa 0,0 l/m 0 min 0 min 0 W/m 16,1 km/h (3 Bft) 93,62 %
15.01.2020 08:12 10,6 C 9,4 C 8,9 C 77 % 1011,0 hPa 0,0 l/m 0 min 0 min 0 W/m 6,4 km/h (2 Bft) 91,49 %
15.01.2020 08:14 10,6 C 9,4 C 8,9 C 77 % 1011,0 hPa 0,0 l/m 0 min 0 min 0 W/m 0,0 km/h (0 Bft) 95,65 %
15.01.2020 08:16 10,6 C 9,4 C 8,9 C 77 % 1011,0 hPa 0,0 l/m 0 min 0 min 0 W/m 0,0 km/h (0 Bft) 95,74 %
15.01.2020 08:18 10,5 C 8,9 C 8,3 C 78 % 1011,0 hPa 0,0 l/m 0 min 0 min 0 W/m 12,9 km/h (3 Bft) 95,74 %
15.01.2020 08:20 10,4 C 8,3 C 8,3 C 79 % 1011,0 hPa 0,0 l/m 0 min 0 min 0 W/m 6,4 km/h (2 Bft) 93,62 %
15.01.2020 08:22 10,3 C 8,3 C 7,8 C 79 % 1011,0 hPa 0,0 l/m 0 min 0 min 0 W/m 0,0 km/h (0 Bft) 97,87 %
15.01.2020 08:24 10,2 C 8,3 C 7,8 C 80 % 1011,0 hPa 0,0 l/m 0 min 0 min 0 W/m 3,2 km/h (1 Bft) 97,87 %
15.01.2020 08:26 10,1 C 8,3 C 7,8 C 80 % 1011,0 hPa 0,0 l/m 0 min 0 min 0 W/m 0,0 km/h (0 Bft) 95,65 %
15.01.2020 08:28 10,0 C 8,3 C 7,8 C 81 % 1011,0 hPa 0,0 l/m 0 min 0 min 0 W/m 0,0 km/h (0 Bft) 91,49 %
15.01.2020 08:30 9,9 C 8,3 C 7,8 C 81 % 1011,0 hPa 0,0 l/m 0 min 0 min 0 W/m 16,1 km/h (3 Bft) 95,74 %
15.01.2020 08:32 9,8 C 8,3 C 7,8 C 81 % 1011,0 hPa 0,0 l/m 0 min 0 min 3 W/m 16,1 km/h (3 Bft) 93,62 %
15.01.2020 08:34 9,7 C 8,3 C 7,8 C 82 % 1011,0 hPa 0,0 l/m 0 min 0 min 5 W/m 3,2 km/h (1 Bft) 97,87 %
15.01.2020 08:36 9,6 C 8,3 C 7,8 C 82 % 1011,1 hPa 0,0 l/m 0 min 0 min 5 W/m 3,2 km/h (1 Bft) 93,62 %
15.01.2020 08:38 9,6 C 8,3 C 7,8 C 82 % 1011,0 hPa 0,0 l/m 0 min 0 min 7 W/m 25,7 km/h (4 Bft) 97,83 %
15.01.2020 08:40 9,4 C 8,3 C 7,8 C 82 % 1011,0 hPa 0,0 l/m 0 min 0 min 7 W/m 16,1 km/h (3 Bft) 97,87 %
15.01.2020 08:42 9,4 C 8,3 C 7,8 C 82 % 1011,0 hPa 0,0 l/m 0 min 0 min 7 W/m 25,7 km/h (4 Bft) 95,74 %
15.01.2020 08:44 9,4 C 8,3 C 7,8 C 83 % 1011,0 hPa 0,0 l/m 0 min 0 min 8 W/m 3,2 km/h (1 Bft) 97,87 %
15.01.2020 08:46 9,3 C 8,3 C 7,8 C 83 % 1011,1 hPa 0,0 l/m 0 min 0 min 8 W/m 22,5 km/h (4 Bft) 91,49 %
15.01.2020 08:48 9,3 C 8,3 C 7,8 C 83 % 1011,0 hPa 0,0 l/m 0 min 0 min 7 W/m 25,7 km/h (4 Bft) 95,74 %
15.01.2020 08:50 9,3 C 8,3 C 7,8 C 83 % 1011,1 hPa 0,0 l/m 0 min 0 min 9 W/m 35,4 km/h (5 Bft) 97,83 %
15.01.2020 08:52 9,2 C 8,3 C 7,8 C 83 % 1011,1 hPa 0,0 l/m 0 min 0 min 9 W/m 19,3 km/h (3 Bft) 97,87 %
15.01.2020 08:54 9,2 C 8,3 C 7,8 C 83 % 1011,1 hPa 0,0 l/m 0 min 0 min 9 W/m 16,1 km/h (3 Bft) 97,87 %
15.01.2020 08:56 9,2 C 8,3 C 7,8 C 83 % 1011,2 hPa 0,0 l/m 0 min 0 min 9 W/m 29,0 km/h (5 Bft) 97,87 %
15.01.2020 08:58 9,2 C 8,3 C 7,8 C 83 % 1011,2 hPa 0,0 l/m 0 min 0 min 9 W/m 25,7 km/h (4 Bft) 97,87 %
15.01.2020 09:00 9,2 C 8,3 C 7,8 C 83 % 1011,2 hPa 0,0 l/m 0 min 0 min 10 W/m 25,7 km/h (4 Bft) 95,65 %
15.01.2020 09:02 9,2 C 8,3 C 7,8 C 83 % 1011,2 hPa 0,0 l/m 0 min 0 min 11 W/m 22,5 km/h (4 Bft) 95,74 %
15.01.2020 09:04 9,1 C 8,3 C 7,8 C 83 % 1011,2 hPa 0,0 l/m 0 min 0 min 11 W/m 0,0 km/h (0 Bft) 97,87 %
15.01.2020 09:06 9,1 C 8,3 C 7,8 C 83 % 1011,2 hPa 0,0 l/m 0 min 0 min 12 W/m 0,0 km/h (0 Bft) 97,87 %
15.01.2020 09:08 9,1 C 8,3 C 7,8 C 83 % 1011,3 hPa 0,0 l/m 0 min 0 min 12 W/m 0,0 km/h (0 Bft) 97,87 %
15.01.2020 09:10 9,2 C 8,3 C 7,8 C 83 % 1011,2 hPa 0,0 l/m 0 min 0 min 14 W/m 0,0 km/h (0 Bft) 97,87 %
15.01.2020 09:12 9,2 C 8,3 C 7,8 C 83 % 1011,2 hPa 0,0 l/m 0 min 0 min 15 W/m 0,0 km/h (0 Bft) 95,65 %
15.01.2020 09:14 9,2 C 8,3 C 7,8 C 83 % 1011,2 hPa 0,0 l/m 0 min 0 min 16 W/m 0,0 km/h (0 Bft) 97,87 %
15.01.2020 09:16 9,2 C 8,9 C 7,8 C 83 % 1011,2 hPa 0,0 l/m 0 min 0 min 18 W/m 22,5 km/h (4 Bft) 100,00 %
15.01.2020 09:18 9,2 C 8,9 C 7,8 C 83 % 1011,2 hPa 0,0 l/m 0 min 0 min 18 W/m 19,3 km/h (3 Bft) 97,87 %
15.01.2020 09:20 9,2 C 8,9 C 7,8 C 82 % 1011,2 hPa 0,0 l/m 0 min 0 min 18 W/m 0,0 km/h (0 Bft) 100,00 %
15.01.2020 09:22 9,2 C 8,9 C 7,8 C 82 % 1011,3 hPa 0,0 l/m 0 min 0 min 19 W/m 0,0 km/h (0 Bft) 100,00 %
15.01.2020 09:24 9,2 C 8,9 C 7,8 C 82 % 1011,3 hPa 0,0 l/m 0 min 0 min 19 W/m 0,0 km/h (0 Bft) 100,00 %
15.01.2020 09:26 9,2 C 8,9 C 8,3 C 82 % 1011,3 hPa 0,0 l/m 0 min 0 min 22 W/m 3,2 km/h (1 Bft) 100,00 %
15.01.2020 09:28 9,3 C 8,9 C 8,3 C 82 % 1011,3 hPa 0,0 l/m 0 min 0 min 26 W/m 0,0 km/h (0 Bft) 97,87 %
15.01.2020 09:30 9,3 C 8,9 C 8,3 C 82 % 1011,4 hPa 0,0 l/m 0 min 0 min 28 W/m 0,0 km/h (0 Bft) 100,00 %
15.01.2020 09:32 9,3 C 8,9 C 8,3 C 82 % 1011,3 hPa 0,0 l/m 0 min 0 min 31 W/m 0,0 km/h (0 Bft) 100,00 %
15.01.2020 09:34 9,3 C 8,9 C 8,3 C 82 % 1011,4 hPa 0,0 l/m 0 min 0 min 33 W/m 0,0 km/h (0 Bft) 97,87 %
15.01.2020 09:36 9,3 C 8,9 C 8,3 C 82 % 1011,4 hPa 0,0 l/m 0 min 0 min 36 W/m 0,0 km/h (0 Bft) 100,00 %
15.01.2020 09:38 9,3 C 8,9 C 8,3 C 82 % 1011,4 hPa 0,0 l/m 0 min 0 min 39 W/m 0,0 km/h (0 Bft) 100,00 %
15.01.2020 09:40 9,3 C 8,9 C 8,3 C 81 % 1011,4 hPa 0,0 l/m 0 min 0 min 39 W/m 25,7 km/h (4 Bft) 100,00 %
15.01.2020 09:42 9,4 C 8,9 C 8,3 C 81 % 1011,5 hPa 0,0 l/m 0 min 0 min 39 W/m 22,5 km/h (4 Bft) 100,00 %
15.01.2020 09:44 9,4 C 8,9 C 8,3 C 81 % 1011,5 hPa 0,0 l/m 0 min 0 min 37 W/m 0,0 km/h (0 Bft) 100,00 %
15.01.2020 09:46 9,4 C 8,9 C 8,3 C 81 % 1011,5 hPa 0,0 l/m 0 min 0 min 39 W/m 0,0 km/h (0 Bft) 97,87 %
15.01.2020 09:48 9,4 C 9,4 C 8,3 C 81 % 1011,4 hPa 0,0 l/m 0 min 0 min 40 W/m 3,2 km/h (1 Bft) 100,00 %
15.01.2020 09:50 9,4 C 9,4 C 8,3 C 81 % 1011,4 hPa 0,0 l/m 0 min 0 min 40 W/m 22,5 km/h (4 Bft) 100,00 %
15.01.2020 09:52 9,5 C 9,4 C 8,3 C 81 % 1011,4 hPa 0,0 l/m 0 min 0 min 42 W/m 16,1 km/h (3 Bft) 100,00 %
15.01.2020 09:54 9,5 C 9,4 C 8,3 C 81 % 1011,4 hPa 0,0 l/m 0 min 0 min 43 W/m 0,0 km/h (0 Bft) 100,00 %
15.01.2020 09:56 9,6 C 9,4 C 8,3 C 81 % 1011,4 hPa 0,0 l/m 0 min 0 min 46 W/m 25,7 km/h (4 Bft) 100,00 %
15.01.2020 09:58 9,6 C 9,4 C 8,3 C 81 % 1011,5 hPa 0,0 l/m 0 min 0 min 49 W/m 0,0 km/h (0 Bft) 100,00 %
15.01.2020 10:00 9,6 C 9,4 C 8,9 C 80 % 1011,5 hPa 0,0 l/m 0 min 0 min 52 W/m 0,0 km/h (0 Bft) 100,00 %
15.01.2020 10:02 9,6 C 9,4 C 8,9 C 80 % 1011,5 hPa 0,0 l/m 0 min 0 min 52 W/m 0,0 km/h (0 Bft) 97,87 %
15.01.2020 10:04 9,6 C 9,4 C 8,9 C 80 % 1011,6 hPa 0,0 l/m 0 min 0 min 52 W/m 0,0 km/h (0 Bft) 100,00 %
15.01.2020 10:06 9,7 C 9,4 C 8,9 C 80 % 1011,5 hPa 0,0 l/m 0 min 0 min 53 W/m 0,0 km/h (0 Bft) 100,00 %
15.01.2020 10:08 9,7 C 9,4 C 8,9 C 80 % 1011,5 hPa 0,0 l/m 0 min 0 min 53 W/m 3,2 km/h (1 Bft) 100,00 %
15.01.2020 10:10 9,7 C 9,4 C 8,9 C 80 % 1011,5 hPa 0,0 l/m 0 min 0 min 54 W/m 3,2 km/h (1 Bft) 95,65 %
15.01.2020 10:12 9,7 C 9,4 C 8,9 C 80 % 1011,5 hPa 0,0 l/m 0 min 0 min 54 W/m 0,0 km/h (0 Bft) 97,87 %
15.01.2020 10:14 9,7 C 9,4 C 8,9 C 80 % 1011,5 hPa 0,0 l/m 0 min 0 min 55 W/m 22,5 km/h (4 Bft) 100,00 %
15.01.2020 10:16 9,7 C 9,4 C 8,9 C 80 % 1011,4 hPa 0,0 l/m 0 min 0 min 60 W/m 22,5 km/h (4 Bft) 100,00 %
15.01.2020 10:18 9,7 C 9,4 C 8,9 C 80 % 1011,5 hPa 0,0 l/m 0 min 0 min 63 W/m 0,0 km/h (0 Bft) 100,00 %
15.01.2020 10:20 9,7 C 9,4 C 8,9 C 80 % 1011,6 hPa 0,0 l/m 0 min 0 min 69 W/m 16,1 km/h (3 Bft) 100,00 %
15.01.2020 10:22 9,7 C 9,4 C 8,9 C 80 % 1011,6 hPa 0,0 l/m 0 min 0 min 74 W/m 0,0 km/h (0 Bft) 100,00 %
15.01.2020 10:24 9,8 C 9,4 C 8,9 C 80 % 1011,6 hPa 0,0 l/m 0 min 0 min 80 W/m 0,0 km/h (0 Bft) 100,00 %
15.01.2020 10:26 9,8 C 9,4 C 8,9 C 80 % 1011,6 hPa 0,0 l/m 0 min 0 min 89 W/m 22,5 km/h (4 Bft) 100,00 %
15.01.2020 10:28 9,8 C 9,4 C 8,9 C 80 % 1011,6 hPa 0,0 l/m 0 min 0 min 91 W/m 0,0 km/h (0 Bft) 100,00 %
15.01.2020 10:30 9,8 C 9,4 C 8,9 C 80 % 1011,7 hPa 0,0 l/m 0 min 0 min 87 W/m 0,0 km/h (0 Bft) 100,00 %
15.01.2020 10:32 9,8 C 9,4 C 8,9 C 80 % 1011,7 hPa 0,0 l/m 0 min 0 min 82 W/m 25,7 km/h (4 Bft) 97,87 %
15.01.2020 10:36 9,9 C 10,0 C 8,9 C 80 % 1011,7 hPa 0,0 l/m 0 min 0 min 67 W/m 12,9 km/h (3 Bft) 100,00 %
15.01.2020 10:38 9,9 C 10,0 C 8,9 C 80 % 1011,7 hPa 0,0 l/m 0 min 0 min 63 W/m 25,7 km/h (4 Bft) 98,31 %
15.01.2020 10:40 9,9 C 10,0 C 8,9 C 80 % 1011,7 hPa 0,0 l/m 0 min 0 min 60 W/m 25,7 km/h (4 Bft) 95,74 %
15.01.2020 10:42 9,9 C 10,0 C 8,9 C 80 % 1011,7 hPa 0,0 l/m 0 min 0 min 57 W/m 3,2 km/h (1 Bft) 95,74 %
15.01.2020 10:44 10,0 C 9,4 C 8,9 C 80 % 1011,8 hPa 0,0 l/m 0 min 0 min 54 W/m 0,0 km/h (0 Bft) 100,00 %
15.01.2020 10:46 10,0 C 9,4 C 8,9 C 80 % 1011,7 hPa 0,0 l/m 0 min 0 min 54 W/m 35,4 km/h (5 Bft) 97,87 %
15.01.2020 10:48 10,0 C 10,0 C 8,9 C 80 % 1011,7 hPa 0,0 l/m 0 min 0 min 56 W/m 0,0 km/h (0 Bft) 97,87 %
15.01.2020 10:50 10,1 C 10,0 C 9,4 C 80 % 1011,6 hPa 0,0 l/m 0 min 0 min 62 W/m 29,0 km/h (5 Bft) 95,74 %
15.01.2020 10:52 10,1 C 10,0 C 9,4 C 80 % 1011,7 hPa 0,0 l/m 0 min 0 min 67 W/m 22,5 km/h (4 Bft) 95,74 %
15.01.2020 10:54 10,1 C 10,0 C 9,4 C 80 % 1011,6 hPa 0,0 l/m 0 min 0 min 67 W/m 0,0 km/h (0 Bft) 95,74 %
15.01.2020 10:56 10,1 C 10,0 C 9,4 C 79 % 1011,6 hPa 0,0 l/m 0 min 0 min 65 W/m 3,2 km/h (1 Bft) 91,30 %
15.01.2020 10:58 10,2 C 10,0 C 9,4 C 79 % 1011,7 hPa 0,0 l/m 0 min 0 min 67 W/m 0,0 km/h (0 Bft) 93,62 %
15.01.2020 11:00 10,2 C 10,0 C 9,4 C 79 % 1011,7 hPa 0,0 l/m 0 min 0 min 69 W/m 0,0 km/h (0 Bft) 93,62 %
15.01.2020 11:02 10,2 C 10,0 C 9,4 C 79 % 1011,7 hPa 0,0 l/m 0 min 0 min 72 W/m 0,0 km/h (0 Bft) 93,62 %
15.01.2020 11:04 10,3 C 10,6 C 9,4 C 79 % 1011,8 hPa 0,0 l/m 0 min 0 min 70 W/m 0,0 km/h (0 Bft) 95,74 %
15.01.2020 11:06 10,3 C 10,6 C 10,0 C 79 % 1011,8 hPa 0,0 l/m 0 min 0 min 67 W/m 0,0 km/h (0 Bft) 93,62 %
15.01.2020 11:08 10,3 C 10,6 C 10,0 C 79 % 1011,8 hPa 0,0 l/m 0 min 0 min 64 W/m 0,0 km/h (0 Bft) 95,65 %
15.01.2020 11:10 10,4 C 10,6 C 10,0 C 78 % 1011,8 hPa 0,0 l/m 0 min 0 min 63 W/m 12,9 km/h (3 Bft) 95,74 %
15.01.2020 11:12 10,5 C 10,6 C 10,0 C 78 % 1011,8 hPa 0,0 l/m 0 min 0 min 64 W/m 3,2 km/h (1 Bft) 95,74 %
15.01.2020 11:14 10,6 C 10,6 C 10,0 C 78 % 1011,8 hPa 0,0 l/m 0 min 0 min 68 W/m 19,3 km/h (3 Bft) 93,62 %
15.01.2020 11:16 10,6 C 10,6 C 10,0 C 77 % 1011,8 hPa 0,0 l/m 0 min 0 min 69 W/m 0,0 km/h (0 Bft) 93,62 %
15.01.2020 11:18 10,7 C 10,6 C 10,0 C 77 % 1011,8 hPa 0,0 l/m 0 min 0 min 68 W/m 0,0 km/h (0 Bft) 95,74 %
15.01.2020 11:20 10,8 C 11,1 C 10,0 C 77 % 1011,8 hPa 0,0 l/m 0 min 0 min 67 W/m 0,0 km/h (0 Bft) 95,65 %
15.01.2020 11:22 10,8 C 11,1 C 10,0 C 76 % 1011,9 hPa 0,0 l/m 0 min 0 min 64 W/m 0,0 km/h (0 Bft) 95,74 %
15.01.2020 11:24 10,9 C 11,1 C 10,0 C 76 % 1011,9 hPa 0,0 l/m 0 min 0 min 63 W/m 12,9 km/h (3 Bft) 95,74 %
15.01.2020 11:26 10,9 C 11,1 C 10,6 C 76 % 1011,9 hPa 0,0 l/m 0 min 0 min 66 W/m 0,0 km/h (0 Bft) 95,74 %
15.01.2020 11:28 11,0 C 11,1 C 10,6 C 76 % 1011,9 hPa 0,0 l/m 0 min 0 min 69 W/m 29,0 km/h (5 Bft) 91,49 %
15.01.2020 11:30 11,1 C 11,1 C 10,6 C 76 % 1011,9 hPa 0,0 l/m 0 min 0 min 76 W/m 22,5 km/h (4 Bft) 93,62 %
15.01.2020 11:32 11,1 C 11,1 C 10,6 C 75 % 1011,9 hPa 0,0 l/m 0 min 0 min 84 W/m 0,0 km/h (0 Bft) 95,65 %
15.01.2020 11:34 11,2 C 11,1 C 10,6 C 75 % 1011,8 hPa 0,0 l/m 0 min 0 min 93 W/m 19,3 km/h (3 Bft) 93,62 %
15.01.2020 11:36 11,2 C 11,7 C 10,6 C 75 % 1011,8 hPa 0,0 l/m 0 min 0 min 103 W/m 25,7 km/h (4 Bft) 93,62 %
15.01.2020 11:38 11,2 C 11,7 C 10,6 C 75 % 1011,6 hPa 0,0 l/m 0 min 0 min 125 W/m 3,2 km/h (1 Bft) 95,74 %
15.01.2020 11:40 11,3 C 11,7 C 10,6 C 75 % 1011,7 hPa 0,0 l/m 0 min 0 min 119 W/m 35,4 km/h (5 Bft) 93,62 %
15.01.2020 11:42 11,3 C 11,7 C 11,1 C 74 % 1011,7 hPa 0,0 l/m 0 min 0 min 129 W/m 0,0 km/h (0 Bft) 95,65 %
15.01.2020 11:44 11,4 C 11,7 C 11,1 C 74 % 1011,8 hPa 0,0 l/m 0 min 0 min 148 W/m 29,0 km/h (5 Bft) 95,74 %
15.01.2020 11:46 11,5 C 12,2 C 11,1 C 74 % 1011,8 hPa 0,0 l/m 0 min 0 min 143 W/m 25,7 km/h (4 Bft) 93,62 %
15.01.2020 11:48 11,6 C 12,2 C 11,1 C 73 % 1011,8 hPa 0,0 l/m 0 min 0 min 150 W/m 16,1 km/h (3 Bft) 95,74 %
15.01.2020 11:50 11,6 C 12,2 C 11,1 C 73 % 1011,9 hPa 0,0 l/m 0 min 0 min 151 W/m 3,2 km/h (1 Bft) 97,87 %
15.01.2020 11:52 11,7 C 12,2 C 11,1 C 73 % 1011,9 hPa 0,0 l/m 0 min 0 min 154 W/m 3,2 km/h (1 Bft) 95,74 %
15.01.2020 11:54 11,7 C 12,2 C 11,1 C 73 % 1011,8 hPa 0,0 l/m 0 min 0 min 130 W/m 0,0 km/h (0 Bft) 97,83 %
15.01.2020 11:56 11,8 C 12,2 C 11,1 C 72 % 1011,8 hPa 0,0 l/m 0 min 0 min 128 W/m 0,0 km/h (0 Bft) 97,87 %
15.01.2020 11:58 11,8 C 12,2 C 11,1 C 72 % 1011,8 hPa 0,0 l/m 0 min 0 min 132 W/m 25,7 km/h (4 Bft) 95,74 %
15.01.2020 12:00 11,9 C 12,2 C 11,1 C 72 % 1011,8 hPa 0,0 l/m 0 min 0 min 150 W/m 0,0 km/h (0 Bft) 93,62 %
15.01.2020 12:02 11,9 C 12,2 C 11,1 C 72 % 1011,8 hPa 0,0 l/m 0 min 0 min 155 W/m 22,5 km/h (4 Bft) 95,74 %
15.01.2020 12:04 12,0 C 13,9 C 11,7 C 72 % 1011,7 hPa 0,0 l/m 2 min 0 min 244 W/m 32,2 km/h (5 Bft) 100,00 %
15.01.2020 12:06 12,1 C 14,4 C 11,7 C 72 % 1011,8 hPa 0,0 l/m 2 min 0 min 422 W/m 29,0 km/h (5 Bft) 100,00 %
15.01.2020 12:08 12,2 C 15,0 C 12,2 C 72 % 1011,8 hPa 0,0 l/m 2 min 0 min 390 W/m 19,3 km/h (3 Bft) 100,00 %
15.01.2020 12:10 12,2 C 15,0 C 12,2 C 72 % 1011,8 hPa 0,0 l/m 2 min 0 min 325 W/m 35,4 km/h (5 Bft) 100,00 %
15.01.2020 12:12 12,3 C 15,6 C 12,2 C 72 % 1011,9 hPa 0,0 l/m 2 min 0 min 361 W/m 35,4 km/h (5 Bft) 100,00 %
15.01.2020 12:14 12,5 C 14,4 C 12,2 C 71 % 1011,8 hPa 0,0 l/m 2 min 0 min 297 W/m 35,4 km/h (5 Bft) 100,00 %
15.01.2020 12:16 12,6 C 14,4 C 12,2 C 70 % 1011,7 hPa 0,0 l/m 2 min 0 min 288 W/m 19,3 km/h (3 Bft) 100,00 %
15.01.2020 12:18 12,7 C 14,4 C 12,2 C 70 % 1011,8 hPa 0,0 l/m 2 min 0 min 295 W/m 19,3 km/h (3 Bft) 100,00 %
15.01.2020 12:20 12,8 C 14,4 C 12,2 C 70 % 1011,8 hPa 0,0 l/m 2 min 0 min 276 W/m 19,3 km/h (3 Bft) 100,00 %
15.01.2020 12:22 12,8 C 15,0 C 12,2 C 70 % 1011,8 hPa 0,0 l/m 2 min 0 min 292 W/m 22,5 km/h (4 Bft) 100,00 %
15.01.2020 12:24 12,9 C 14,4 C 12,2 C 70 % 1011,8 hPa 0,0 l/m 2 min 0 min 227 W/m 35,4 km/h (5 Bft) 100,00 %
15.01.2020 12:26 12,9 C 15,0 C 12,8 C 69 % 1011,8 hPa 0,0 l/m 2 min 0 min 323 W/m 19,3 km/h (3 Bft) 100,00 %
15.01.2020 12:28 13,0 C 15,6 C 12,8 C 70 % 1011,9 hPa 0,0 l/m 2 min 0 min 259 W/m 41,8 km/h (6 Bft) 97,87 %
15.01.2020 12:30 13,1 C 15,0 C 12,8 C 69 % 1011,7 hPa 0,0 l/m 2 min 0 min 359 W/m 25,7 km/h (4 Bft) 100,00 %
15.01.2020 12:32 13,1 C 15,0 C 13,3 C 68 % 1011,6 hPa 0,0 l/m 2 min 0 min 268 W/m 22,5 km/h (4 Bft) 100,00 %
15.01.2020 12:34 13,1 C 14,4 C 12,8 C 68 % 1011,7 hPa 0,0 l/m 2 min 0 min 238 W/m 41,8 km/h (6 Bft) 100,00 %
15.01.2020 12:36 13,1 C 14,4 C 13,3 C 68 % 1011,6 hPa 0,0 l/m 2 min 0 min 228 W/m 25,7 km/h (4 Bft) 100,00 %
15.01.2020 12:38 13,2 C 14,4 C 13,9 C 69 % 1011,6 hPa 0,0 l/m 2 min 0 min 257 W/m 22,5 km/h (4 Bft) 100,00 %
15.01.2020 12:40 13,2 C 14,4 C 13,3 C 68 % 1011,8 hPa 0,0 l/m 2 min 0 min 253 W/m 25,7 km/h (4 Bft) 100,00 %
15.01.2020 12:42 13,2 C 13,9 C 12,8 C 68 % 1011,6 hPa 0,0 l/m 2 min 0 min 210 W/m 3,2 km/h (1 Bft) 100,00 %
15.01.2020 12:44 13,2 C 13,3 C 12,2 C 68 % 1011,7 hPa 0,0 l/m 2 min 0 min 176 W/m 41,8 km/h (6 Bft) 100,00 %
15.01.2020 12:46 13,2 C 13,3 C 12,2 C 68 % 1011,7 hPa 0,0 l/m 2 min 0 min 172 W/m 38,6 km/h (5 Bft) 100,00 %
15.01.2020 12:48 13,1 C 13,9 C 11,7 C 68 % 1011,7 hPa 0,0 l/m 2 min 0 min 231 W/m 41,8 km/h (6 Bft) 100,00 %
15.01.2020 12:50 13,1 C 14,4 C 12,2 C 68 % 1011,6 hPa 0,0 l/m 2 min 0 min 288 W/m 41,8 km/h (6 Bft) 97,87 %
15.01.2020 12:52 13,1 C 15,0 C 12,2 C 68 % 1011,6 hPa 0,0 l/m 2 min 0 min 323 W/m 29,0 km/h (5 Bft) 100,00 %
15.01.2020 12:54 13,2 C 15,6 C 12,2 C 68 % 1011,6 hPa 0,0 l/m 2 min 0 min 333 W/m 29,0 km/h (5 Bft) 97,83 %
15.01.2020 12:56 13,2 C 16,1 C 12,2 C 68 % 1011,6 hPa 0,0 l/m 2 min 0 min 348 W/m 29,0 km/h (5 Bft) 100,00 %
15.01.2020 12:58 13,3 C 15,6 C 12,2 C 68 % 1011,5 hPa 0,0 l/m 2 min 0 min 312 W/m 35,4 km/h (5 Bft) 100,00 %
15.01.2020 13:00 13,3 C 15,6 C 12,2 C 68 % 1011,5 hPa 0,0 l/m 2 min 0 min 327 W/m 38,6 km/h (5 Bft) 97,87 %
15.01.2020 13:02 13,4 C 15,6 C 12,8 C 67 % 1011,4 hPa 0,0 l/m 2 min 0 min 343 W/m 38,6 km/h (5 Bft) 93,62 %
15.01.2020 13:04 13,4 C 15,0 C 12,8 C 67 % 1011,4 hPa 0,0 l/m 2 min 0 min 303 W/m 32,2 km/h (5 Bft) 97,83 %
15.01.2020 13:06 13,5 C 15,0 C 12,8 C 67 % 1011,3 hPa 0,0 l/m 2 min 0 min 266 W/m 48,3 km/h (6 Bft) 97,87 %
15.01.2020 13:08 13,6 C 15,0 C 12,8 C 67 % 1011,3 hPa 0,0 l/m 2 min 0 min 251 W/m 25,7 km/h (4 Bft) 97,87 %
15.01.2020 13:10 13,6 C 15,0 C 12,8 C 67 % 1011,4 hPa 0,0 l/m 2 min 0 min 264 W/m 45,1 km/h (6 Bft) 97,87 %
15.01.2020 13:12 13,6 C 15,0 C 12,8 C 67 % 1011,3 hPa 0,0 l/m 2 min 0 min 316 W/m 25,7 km/h (4 Bft) 97,87 %
15.01.2020 13:14 13,6 C 15,0 C 12,8 C 67 % 1011,3 hPa 0,0 l/m 2 min 0 min 305 W/m 38,6 km/h (5 Bft) 97,87 %
15.01.2020 13:16 13,7 C 15,0 C 12,8 C 66 % 1011,3 hPa 0,0 l/m 2 min 0 min 358 W/m 45,1 km/h (6 Bft) 97,83 %
15.01.2020 13:18 13,7 C 15,0 C 12,8 C 66 % 1011,2 hPa 0,0 l/m 2 min 0 min 231 W/m 41,8 km/h (6 Bft) 97,87 %
15.01.2020 13:20 13,7 C 15,0 C 12,8 C 66 % 1011,3 hPa 0,0 l/m 2 min 0 min 279 W/m 38,6 km/h (5 Bft) 95,74 %
15.01.2020 13:22 13,8 C 15,0 C 12,8 C 66 % 1011,3 hPa 0,0 l/m 2 min 0 min 277 W/m 29,0 km/h (5 Bft) 97,87 %
15.01.2020 13:24 13,8 C 15,0 C 12,8 C 66 % 1011,3 hPa 0,0 l/m 2 min 0 min 281 W/m 38,6 km/h (5 Bft) 97,87 %
15.01.2020 13:26 13,8 C 15,6 C 12,8 C 66 % 1011,2 hPa 0,0 l/m 2 min 0 min 270 W/m 25,7 km/h (4 Bft) 97,87 %
15.01.2020 13:28 13,8 C 15,0 C 12,8 C 66 % 1011,2 hPa 0,0 l/m 2 min 0 min 236 W/m 35,4 km/h (5 Bft) 97,83 %
15.01.2020 13:30 13,8 C 15,0 C 12,8 C 66 % 1011,2 hPa 0,0 l/m 2 min 0 min 270 W/m 41,8 km/h (6 Bft) 97,87 %
15.01.2020 13:32 13,8 C 15,0 C 12,8 C 66 % 1011,2 hPa 0,0 l/m 2 min 0 min 242 W/m 38,6 km/h (5 Bft) 97,87 %
15.01.2020 13:34 13,8 C 15,0 C 12,8 C 66 % 1011,2 hPa 0,0 l/m 2 min 0 min 296 W/m 41,8 km/h (6 Bft) 97,87 %
15.01.2020 13:36 13,9 C 15,6 C 12,8 C 66 % 1011,1 hPa 0,0 l/m 2 min 0 min 300 W/m 41,8 km/h (6 Bft) 97,87 %
15.01.2020 13:38 13,9 C 15,6 C 12,8 C 66 % 1011,1 hPa 0,0 l/m 2 min 0 min 307 W/m 45,1 km/h (6 Bft) 97,87 %
15.01.2020 13:40 13,9 C 15,0 C 12,8 C 66 % 1011,0 hPa 0,0 l/m 2 min 0 min 267 W/m 32,2 km/h (5 Bft) 100,00 %
15.01.2020 13:42 13,9 C 15,6 C 12,8 C 66 % 1011,0 hPa 0,0 l/m 2 min 0 min 297 W/m 25,7 km/h (4 Bft) 97,87 %
15.01.2020 13:44 13,9 C 15,6 C 12,8 C 66 % 1011,0 hPa 0,0 l/m 2 min 0 min 299 W/m 29,0 km/h (5 Bft) 100,00 %
15.01.2020 13:46 13,9 C 15,6 C 12,8 C 66 % 1011,0 hPa 0,0 l/m 2 min 0 min 233 W/m 25,7 km/h (4 Bft) 97,87 %
15.01.2020 13:48 13,9 C 14,4 C 12,8 C 66 % 1011,0 hPa 0,0 l/m 2 min 0 min 199 W/m 19,3 km/h (3 Bft) 95,74 %
15.01.2020 13:50 13,9 C 13,9 C 12,8 C 66 % 1011,0 hPa 0,0 l/m 0 min 0 min 107 W/m 3,2 km/h (1 Bft) 95,65 %
15.01.2020 13:52 13,9 C 13,3 C 12,2 C 66 % 1011,0 hPa 0,0 l/m 0 min 0 min 91 W/m 57,9 km/h (7 Bft) 97,87 %
15.01.2020 13:54 13,8 C 12,8 C 12,2 C 66 % 1011,0 hPa 0,0 l/m 0 min 0 min 77 W/m 32,2 km/h (5 Bft) 97,87 %
15.01.2020 13:56 13,8 C 12,8 C 12,2 C 66 % 1011,2 hPa 0,0 l/m 0 min 0 min 70 W/m 32,2 km/h (5 Bft) 78,72 %
15.01.2020 13:58 13,7 C 12,8 C 12,2 C 66 % 1011,1 hPa 0,0 l/m 0 min 0 min 67 W/m 32,2 km/h (5 Bft) 74,42 %
15.01.2020 14:00 13,6 C 12,8 C 12,2 C 66 % 1011,1 hPa 0,0 l/m 0 min 0 min 64 W/m 51,5 km/h (7 Bft) 97,87 %
15.01.2020 14:02 13,6 C 12,8 C 12,2 C 67 % 1011,1 hPa 0,0 l/m 0 min 0 min 77 W/m 41,8 km/h (6 Bft) 97,83 %
15.01.2020 14:04 13,4 C 12,8 C 12,2 C 67 % 1011,2 hPa 0,0 l/m 0 min 0 min 81 W/m 32,2 km/h (5 Bft) 97,87 %
15.01.2020 14:06 13,4 C 12,8 C 11,7 C 67 % 1011,1 hPa 0,0 l/m 0 min 0 min 84 W/m 22,5 km/h (4 Bft) 97,87 %
15.01.2020 14:08 13,3 C 13,3 C 12,2 C 67 % 1011,1 hPa 0,0 l/m 2 min 0 min 163 W/m 41,8 km/h (6 Bft) 95,74 %
15.01.2020 14:10 13,3 C 13,3 C 12,2 C 68 % 1011,2 hPa 0,0 l/m 0 min 0 min 140 W/m 32,2 km/h (5 Bft) 95,74 %
15.01.2020 14:12 13,3 C 13,9 C 12,2 C 68 % 1011,2 hPa 0,0 l/m 2 min 0 min 149 W/m 12,9 km/h (3 Bft) 97,87 %
15.01.2020 14:14 13,3 C 13,9 C 12,2 C 68 % 1011,2 hPa 0,0 l/m 2 min 0 min 169 W/m 45,1 km/h (6 Bft) 97,87 %
15.01.2020 14:16 13,3 C 13,9 C 12,2 C 68 % 1011,2 hPa 0,0 l/m 2 min 0 min 200 W/m 29,0 km/h (5 Bft) 95,65 %
15.01.2020 14:18 13,3 C 14,4 C 12,2 C 68 % 1011,2 hPa 0,0 l/m 2 min 0 min 248 W/m 29,0 km/h (5 Bft) 97,87 %
15.01.2020 14:20 13,3 C 15,6 C 12,8 C 68 % 1011,2 hPa 0,0 l/m 2 min 0 min 268 W/m 19,3 km/h (3 Bft) 93,62 %
15.01.2020 14:22 13,4 C 15,6 C 12,8 C 68 % 1011,2 hPa 0,0 l/m 2 min 0 min 281 W/m 22,5 km/h (4 Bft) 97,87 %
15.01.2020 14:24 13,4 C 15,6 C 12,8 C 68 % 1011,2 hPa 0,0 l/m 2 min 0 min 305 W/m 29,0 km/h (5 Bft) 97,87 %
15.01.2020 14:26 13,5 C 16,1 C 12,8 C 68 % 1011,2 hPa 0,0 l/m 2 min 0 min 281 W/m 6,4 km/h (2 Bft) 93,48 %
15.01.2020 14:28 13,6 C 15,6 C 12,8 C 68 % 1011,2 hPa 0,0 l/m 2 min 0 min 331 W/m 48,3 km/h (6 Bft) 95,74 %
15.01.2020 14:30 13,7 C 15,6 C 12,8 C 68 % 1011,2 hPa 0,0 l/m 2 min 0 min 299 W/m 38,6 km/h (5 Bft) 95,74 %
15.01.2020 14:32 13,7 C 14,4 C 12,8 C 67 % 1011,2 hPa 0,0 l/m 2 min 0 min 158 W/m 35,4 km/h (5 Bft) 93,62 %
15.01.2020 14:34 13,7 C 13,9 C 12,8 C 67 % 1011,1 hPa 0,0 l/m 0 min 0 min 93 W/m 35,4 km/h (5 Bft) 95,74 %
15.01.2020 14:36 13,7 C 13,3 C 12,2 C 67 % 1011,1 hPa 0,0 l/m 0 min 0 min 84 W/m 35,4 km/h (5 Bft) 95,74 %
15.01.2020 14:38 13,7 C 13,9 C 12,8 C 67 % 1011,0 hPa 0,0 l/m 2 min 0 min 140 W/m 35,4 km/h (5 Bft) 97,83 %
15.01.2020 14:40 13,7 C 14,4 C 12,2 C 67 % 1010,9 hPa 0,0 l/m 2 min 0 min 211 W/m 45,1 km/h (6 Bft) 97,87 %
15.01.2020 14:42 13,7 C 13,9 C 12,2 C 67 % 1010,9 hPa 0,0 l/m 2 min 0 min 161 W/m 35,4 km/h (5 Bft) 97,87 %
15.01.2020 14:44 13,7 C 13,9 C 12,2 C 67 % 1010,9 hPa 0,0 l/m 2 min 0 min 158 W/m 32,2 km/h (5 Bft) 97,87 %
15.01.2020 14:46 13,7 C 13,9 C 12,2 C 67 % 1010,9 hPa 0,0 l/m 2 min 0 min 131 W/m 35,4 km/h (5 Bft) 93,62 %
15.01.2020 14:48 13,7 C 13,3 C 12,2 C 67 % 1011,0 hPa 0,0 l/m 0 min 0 min 85 W/m 48,3 km/h (6 Bft) 97,83 %
15.01.2020 14:50 13,7 C 13,3 C 12,8 C 67 % 1011,1 hPa 0,0 l/m 0 min 0 min 76 W/m 64,4 km/h (8 Bft) 97,87 %
15.01.2020 14:52 13,7 C 13,3 C 12,8 C 67 % 1011,2 hPa 0,0 l/m 0 min 0 min 63 W/m 29,0 km/h (5 Bft) 95,74 %
15.01.2020 14:54 13,7 C 13,3 C 12,2 C 67 % 1011,2 hPa 0,0 l/m 0 min 0 min 50 W/m 32,2 km/h (5 Bft) 97,87 %
15.01.2020 14:56 13,7 C 12,8 C 12,2 C 67 % 1011,3 hPa 0,0 l/m 0 min 0 min 43 W/m 41,8 km/h (6 Bft) 93,62 %
15.01.2020 14:58 13,7 C 12,8 C 12,2 C 67 % 1011,5 hPa 0,0 l/m 0 min 0 min 38 W/m 29,0 km/h (5 Bft) 97,87 %
15.01.2020 15:00 13,7 C 12,8 C 12,2 C 67 % 1011,6 hPa 0,0 l/m 0 min 0 min 36 W/m 29,0 km/h (5 Bft) 97,83 %
15.01.2020 15:02 13,7 C 12,8 C 12,2 C 67 % 1011,6 hPa 0,0 l/m 0 min 0 min 33 W/m 32,2 km/h (5 Bft) 97,87 %
15.01.2020 15:04 13,7 C 12,8 C 12,2 C 67 % 1011,6 hPa 0,0 l/m 0 min 0 min 33 W/m 38,6 km/h (5 Bft) 97,87 %
15.01.2020 15:06 13,7 C 12,8 C 12,2 C 67 % 1011,6 hPa 0,0 l/m 0 min 0 min 36 W/m 35,4 km/h (5 Bft) 97,87 %
15.01.2020 15:08 13,7 C 12,2 C 12,2 C 67 % 1011,6 hPa 0,0 l/m 0 min 0 min 34 W/m 29,0 km/h (5 Bft) 97,92 %
15.01.2020 15:10 13,6 C 12,2 C 12,2 C 68 % 1011,6 hPa 0,0 l/m 0 min 0 min 32 W/m 22,5 km/h (4 Bft) 97,87 %
15.01.2020 15:12 13,6 C 12,8 C 12,2 C 68 % 1011,9 hPa 0,0 l/m 0 min 2 min 28 W/m 16,1 km/h (3 Bft) 97,83 %
15.01.2020 15:14 13,6 C 12,2 C 11,7 C 69 % 1012,2 hPa 0,0 l/m 0 min 2 min 21 W/m 35,4 km/h (5 Bft) 97,87 %
15.01.2020 15:16 13,6 C 11,7 C 11,7 C 69 % 1012,3 hPa 0,0 l/m 0 min 2 min 21 W/m 29,0 km/h (5 Bft) 100,00 %
15.01.2020 15:18 13,5 C 12,2 C 11,1 C 70 % 1012,2 hPa 0,0 l/m 0 min 2 min 33 W/m 32,2 km/h (5 Bft) 100,00 %
15.01.2020 15:20 13,5 C 12,2 C 11,1 C 70 % 1012,3 hPa 0,0 l/m 0 min 2 min 56 W/m 0,0 km/h (0 Bft) 100,00 %
15.01.2020 15:22 13,4 C 12,2 C 11,7 C 70 % 1012,4 hPa 0,0 l/m 0 min 0 min 65 W/m 0,0 km/h (0 Bft) 97,87 %
15.01.2020 15:24 13,4 C 12,2 C 11,1 C 71 % 1012,5 hPa 0,0 l/m 0 min 2 min 65 W/m 3,2 km/h (1 Bft) 100,00 %
15.01.2020 15:26 13,4 C 11,7 C 11,1 C 71 % 1012,5 hPa 0,0 l/m 0 min 2 min 72 W/m 0,0 km/h (0 Bft) 100,00 %
15.01.2020 15:28 13,3 C 12,2 C 10,6 C 71 % 1012,5 hPa 0,0 l/m 0 min 2 min 76 W/m 19,3 km/h (3 Bft) 97,87 %
15.01.2020 15:30 13,3 C 11,7 C 11,1 C 71 % 1012,5 hPa 0,0 l/m 0 min 2 min 63 W/m 3,2 km/h (1 Bft) 100,00 %
15.01.2020 15:32 13,3 C 11,7 C 11,1 C 72 % 1012,4 hPa 0,0 l/m 0 min 2 min 50 W/m 16,1 km/h (3 Bft) 100,00 %
15.01.2020 15:34 13,3 C 11,7 C 11,1 C 72 % 1012,5 hPa 0,0 l/m 0 min 0 min 40 W/m 3,2 km/h (1 Bft) 100,00 %
15.01.2020 15:36 13,2 C 12,2 C 11,1 C 71 % 1012,5 hPa 0,0 l/m 0 min 0 min 29 W/m 25,7 km/h (4 Bft) 100,00 %
15.01.2020 15:38 13,2 C 12,2 C 11,7 C 71 % 1012,5 hPa 0,0 l/m 0 min 0 min 26 W/m 35,4 km/h (5 Bft) 95,74 %
15.01.2020 15:40 13,2 C 12,2 C 11,7 C 71 % 1012,4 hPa 0,0 l/m 0 min 0 min 34 W/m 3,2 km/h (1 Bft) 97,87 %
15.01.2020 15:42 13,2 C 12,2 C 11,7 C 71 % 1012,4 hPa 0,0 l/m 0 min 0 min 37 W/m 3,2 km/h (1 Bft) 97,87 %
15.01.2020 15:44 13,2 C 12,2 C 11,7 C 71 % 1012,5 hPa 0,0 l/m 0 min 0 min 29 W/m 0,0 km/h (0 Bft) 97,87 %
15.01.2020 15:46 13,2 C 12,2 C 11,1 C 72 % 1012,5 hPa 0,0 l/m 0 min 2 min 23 W/m 16,1 km/h (3 Bft) 95,74 %
15.01.2020 15:48 13,2 C 12,2 C 11,1 C 72 % 1012,6 hPa 0,0 l/m 0 min 0 min 19 W/m 0,0 km/h (0 Bft) 97,83 %
15.01.2020 15:50 13,2 C 11,7 C 10,6 C 72 % 1012,6 hPa 0,0 l/m 0 min 2 min 16 W/m 25,7 km/h (4 Bft) 95,74 %
15.01.2020 15:52 13,2 C 11,7 C 10,6 C 71 % 1012,6 hPa 0,0 l/m 0 min 2 min 14 W/m 29,0 km/h (5 Bft) 97,87 %
15.01.2020 15:54 13,1 C 12,2 C 11,1 C 71 % 1012,6 hPa 0,0 l/m 0 min 0 min 12 W/m 51,5 km/h (7 Bft) 93,62 %
15.01.2020 15:56 13,2 C 12,2 C 11,1 C 71 % 1012,8 hPa 0,0 l/m 0 min 0 min 11 W/m 38,6 km/h (5 Bft) 97,87 %
15.01.2020 15:58 13,2 C 12,2 C 11,7 C 71 % 1012,8 hPa 0,0 l/m 0 min 0 min 11 W/m 25,7 km/h (4 Bft) 97,83 %
15.01.2020 16:00 13,2 C 12,2 C 11,7 C 71 % 1012,8 hPa 0,0 l/m 0 min 0 min 12 W/m 22,5 km/h (4 Bft) 95,74 %
15.01.2020 16:02 13,2 C 12,2 C 11,7 C 71 % 1012,9 hPa 0,0 l/m 0 min 0 min 12 W/m 19,3 km/h (3 Bft) 97,87 %
15.01.2020 16:04 13,2 C 12,2 C 11,7 C 71 % 1012,9 hPa 0,0 l/m 0 min 0 min 16 W/m 0,0 km/h (0 Bft) 97,87 %
15.01.2020 16:06 13,2 C 12,2 C 11,7 C 71 % 1013,0 hPa 0,0 l/m 0 min 0 min 14 W/m 12,9 km/h (3 Bft) 97,87 %
15.01.2020 16:08 13,1 C 12,2 C 11,7 C 71 % 1013,0 hPa 0,0 l/m 0 min 0 min 14 W/m 0,0 km/h (0 Bft) 97,87 %
15.01.2020 16:10 13,1 C 12,2 C 11,7 C 71 % 1013,0 hPa 0,0 l/m 0 min 0 min 12 W/m 22,5 km/h (4 Bft) 97,83 %
15.01.2020 16:12 13,1 C 12,2 C 11,7 C 71 % 1013,0 hPa 0,0 l/m 0 min 0 min 12 W/m 9,7 km/h (2 Bft) 95,74 %
15.01.2020 16:14 13,1 C 12,2 C 11,7 C 70 % 1013,1 hPa 0,0 l/m 0 min 0 min 12 W/m 19,3 km/h (3 Bft) 97,87 %
15.01.2020 16:16 13,1 C 12,2 C 11,7 C 70 % 1013,2 hPa 0,0 l/m 0 min 0 min 12 W/m 0,0 km/h (0 Bft) 97,87 %
15.01.2020 16:18 13,1 C 12,2 C 11,7 C 70 % 1013,1 hPa 0,0 l/m 0 min 0 min 10 W/m 22,5 km/h (4 Bft) 97,87 %
15.01.2020 16:20 13,1 C 12,2 C 11,7 C 71 % 1013,2 hPa 0,0 l/m 0 min 0 min 7 W/m 3,2 km/h (1 Bft) 97,87 %
15.01.2020 16:22 13,1 C 12,2 C 11,7 C 70 % 1013,3 hPa 0,0 l/m 0 min 0 min 6 W/m 41,8 km/h (6 Bft) 97,83 %
15.01.2020 16:24 13,1 C 12,2 C 11,7 C 70 % 1013,3 hPa 0,0 l/m 0 min 0 min 5 W/m 25,7 km/h (4 Bft) 100,00 %
15.01.2020 16:26 13,1 C 11,7 C 11,1 C 71 % 1013,3 hPa 0,0 l/m 0 min 2 min 5 W/m 25,7 km/h (4 Bft) 100,00 %
15.01.2020 16:28 13,1 C 11,1 C 10,6 C 71 % 1013,4 hPa 0,0 l/m 0 min 2 min 5 W/m 29,0 km/h (5 Bft) 100,00 %
15.01.2020 16:30 13,1 C 10,6 C 10,0 C 72 % 1013,3 hPa 0,0 l/m 0 min 2 min 2 W/m 0,0 km/h (0 Bft) 100,00 %
15.01.2020 16:32 13,1 C 10,6 C 10,0 C 72 % 1013,4 hPa 0,0 l/m 0 min 2 min 0 W/m 32,2 km/h (5 Bft) 100,00 %
15.01.2020 16:34 13,0 C 11,1 C 10,0 C 72 % 1013,4 hPa 0,0 l/m 0 min 2 min 0 W/m 35,4 km/h (5 Bft) 100,00 %
15.01.2020 16:36 13,0 C 11,1 C 10,6 C 72 % 1013,5 hPa 0,0 l/m 0 min 2 min 0 W/m 25,7 km/h (4 Bft) 100,00 %
15.01.2020 16:38 12,9 C 11,1 C 10,6 C 73 % 1013,5 hPa 0,0 l/m 0 min 2 min 0 W/m 29,0 km/h (5 Bft) 100,00 %
15.01.2020 16:40 12,9 C 11,1 C 10,6 C 73 % 1013,5 hPa 0,0 l/m 0 min 2 min 0 W/m 29,0 km/h (5 Bft) 100,00 %
15.01.2020 16:42 12,8 C 11,1 C 10,6 C 73 % 1013,5 hPa 0,0 l/m 0 min 2 min 0 W/m 3,2 km/h (1 Bft) 95,74 %
15.01.2020 16:44 12,8 C 10,6 C 10,6 C 73 % 1013,6 hPa 0,0 l/m 0 min 2 min 0 W/m 3,2 km/h (1 Bft) 100,00 %
15.01.2020 16:46 12,8 C 10,6 C 10,6 C 73 % 1013,6 hPa 0,0 l/m 0 min 2 min 0 W/m 35,4 km/h (5 Bft) 100,00 %
15.01.2020 16:48 12,8 C 11,1 C 11,1 C 73 % 1013,6 hPa 0,0 l/m 0 min 2 min 0 W/m 35,4 km/h (5 Bft) 100,00 %
15.01.2020 16:50 12,7 C 11,1 C 11,1 C 74 % 1013,5 hPa 0,0 l/m 0 min 2 min 0 W/m 45,1 km/h (6 Bft) 97,87 %
15.01.2020 16:52 12,7 C 11,1 C 11,1 C 74 % 1013,5 hPa 0,0 l/m 0 min 2 min 0 W/m 35,4 km/h (5 Bft) 100,00 %
15.01.2020 16:54 12,7 C 11,1 C 10,6 C 74 % 1013,6 hPa 0,0 l/m 0 min 2 min 0 W/m 35,4 km/h (5 Bft) 100,00 %
15.01.2020 16:56 12,7 C 11,1 C 10,6 C 74 % 1013,5 hPa 0,0 l/m 0 min 2 min 0 W/m 32,2 km/h (5 Bft) 97,87 %
15.01.2020 16:58 12,7 C 10,6 C 10,0 C 74 % 1013,6 hPa 0,0 l/m 0 min 2 min 0 W/m 25,7 km/h (4 Bft) 100,00 %
15.01.2020 17:00 12,7 C 11,1 C 10,6 C 74 % 1013,5 hPa 0,0 l/m 0 min 2 min 0 W/m 25,7 km/h (4 Bft) 100,00 %
15.01.2020 17:02 12,6 C 11,1 C 10,6 C 75 % 1013,7 hPa 0,0 l/m 0 min 0 min 0 W/m 0,0 km/h (0 Bft) 97,87 %
15.01.2020 17:04 12,6 C 11,1 C 10,6 C 74 % 1013,7 hPa 0,0 l/m 0 min 2 min 0 W/m 22,5 km/h (4 Bft) 100,00 %
15.01.2020 17:06 12,6 C 11,1 C 10,6 C 74 % 1013,7 hPa 0,0 l/m 0 min 0 min 0 W/m 25,7 km/h (4 Bft) 97,87 %
15.01.2020 17:08 12,6 C 11,7 C 10,6 C 74 % 1013,6 hPa 0,0 l/m 0 min 0 min 0 W/m 25,7 km/h (4 Bft) 100,00 %
15.01.2020 17:10 12,6 C 11,7 C 11,1 C 74 % 1013,7 hPa 0,0 l/m 0 min 0 min 0 W/m 45,1 km/h (6 Bft) 97,87 %
15.01.2020 17:12 12,6 C 11,7 C 10,6 C 74 % 1013,7 hPa 0,0 l/m 0 min 0 min 0 W/m 35,4 km/h (5 Bft) 47,62 %
15.01.2020 17:14 12,6 C 11,7 C 10,6 C 74 % 1013,7 hPa 0,0 l/m 0 min 0 min 0 W/m 22,5 km/h (4 Bft) 95,74 %
15.01.2020 17:16 12,6 C 11,7 C 10,6 C 75 % 1013,7 hPa 0,0 l/m 0 min 0 min 0 W/m 29,0 km/h (5 Bft) 95,74 %
15.01.2020 17:18 12,6 C 11,7 C 10,6 C 75 % 1013,8 hPa 0,0 l/m 0 min 0 min 0 W/m 25,7 km/h (4 Bft) 95,74 %
15.01.2020 17:20 12,6 C 11,7 C 11,1 C 75 % 1013,8 hPa 0,0 l/m 0 min 0 min 0 W/m 25,7 km/h (4 Bft) 95,65 %
15.01.2020 17:22 12,6 C 11,7 C 11,1 C 74 % 1013,8 hPa 0,0 l/m 0 min 0 min 0 W/m 25,7 km/h (4 Bft) 95,74 %
15.01.2020 17:24 12,5 C 11,7 C 11,1 C 75 % 1013,9 hPa 0,0 l/m 0 min 0 min 0 W/m 0,0 km/h (0 Bft) 95,74 %
15.01.2020 17:26 12,5 C 11,7 C 11,1 C 75 % 1013,9 hPa 0,0 l/m 0 min 2 min 0 W/m 16,1 km/h (3 Bft) 95,74 %
15.01.2020 17:28 12,5 C 11,7 C 11,1 C 75 % 1013,9 hPa 0,0 l/m 0 min 0 min 0 W/m 22,5 km/h (4 Bft) 95,74 %
15.01.2020 17:30 12,5 C 11,7 C 11,1 C 75 % 1014,0 hPa 0,0 l/m 0 min 0 min 0 W/m 0,0 km/h (0 Bft) 95,74 %
15.01.2020 17:32 12,5 C 11,7 C 11,1 C 75 % 1013,9 hPa 0,0 l/m 0 min 0 min 0 W/m 3,2 km/h (1 Bft) 95,65 %
15.01.2020 17:34 12,5 C 11,7 C 11,1 C 75 % 1014,0 hPa 0,0 l/m 0 min 0 min 0 W/m 19,3 km/h (3 Bft) 95,74 %
15.01.2020 17:36 12,5 C 11,7 C 11,1 C 75 % 1014,1 hPa 0,0 l/m 0 min 0 min 0 W/m 25,7 km/h (4 Bft) 91,49 %
15.01.2020 17:38 12,5 C 11,7 C 11,1 C 75 % 1014,1 hPa 0,0 l/m 0 min 0 min 0 W/m 32,2 km/h (5 Bft) 95,74 %
15.01.2020 17:40 12,5 C 11,7 C 11,1 C 75 % 1014,2 hPa 0,0 l/m 0 min 0 min 0 W/m 32,2 km/h (5 Bft) 95,74 %
15.01.2020 17:42 12,5 C 11,1 C 11,1 C 75 % 1014,2 hPa 0,0 l/m 0 min 2 min 0 W/m 19,3 km/h (3 Bft) 93,62 %
15.01.2020 17:44 12,5 C 10,6 C 10,6 C 75 % 1014,4 hPa 0,0 l/m 0 min 2 min 0 W/m 35,4 km/h (5 Bft) 95,65 %
15.01.2020 17:46 12,5 C 10,6 C 10,0 C 76 % 1014,4 hPa 0,0 l/m 0 min 2 min 0 W/m 32,2 km/h (5 Bft) 93,62 %
15.01.2020 17:48 12,5 C 9,4 C 9,4 C 77 % 1014,4 hPa 0,0 l/m 0 min 2 min 0 W/m 3,2 km/h (1 Bft) 95,74 %
15.01.2020 17:50 12,4 C 9,4 C 8,9 C 77 % 1014,5 hPa 0,0 l/m 0 min 2 min 0 W/m 16,1 km/h (3 Bft) 95,74 %
15.01.2020 17:52 12,4 C 8,9 C 8,3 C 78 % 1014,6 hPa 0,0 l/m 0 min 2 min 0 W/m 12,9 km/h (3 Bft) 95,74 %
15.01.2020 17:54 12,4 C 8,9 C 8,3 C 79 % 1014,7 hPa 0,2 l/m 0 min 2 min 0 W/m 29,0 km/h (5 Bft) 97,83 %
15.01.2020 17:56 12,3 C 8,9 C 8,3 C 79 % 1014,8 hPa 0,0 l/m 0 min 2 min 0 W/m 19,3 km/h (3 Bft) 93,62 %
15.01.2020 17:58 12,2 C 8,9 C 8,3 C 80 % 1014,8 hPa 0,0 l/m 0 min 2 min 0 W/m 32,2 km/h (5 Bft) 97,87 %
15.01.2020 18:00 12,2 C 8,9 C 8,3 C 80 % 1014,8 hPa 0,0 l/m 0 min 2 min 0 W/m 35,4 km/h (5 Bft) 97,87 %
15.01.2020 18:02 12,1 C 8,9 C 8,3 C 80 % 1014,9 hPa 0,2 l/m 0 min 2 min 0 W/m 25,7 km/h (4 Bft) 97,87 %
15.01.2020 18:04 12,0 C 8,9 C 8,3 C 81 % 1015,0 hPa 0,0 l/m 0 min 2 min 0 W/m 25,7 km/h (4 Bft) 97,87 %
15.01.2020 18:06 11,9 C 8,9 C 8,3 C 81 % 1015,1 hPa 0,0 l/m 0 min 2 min 0 W/m 29,0 km/h (5 Bft) 95,65 %
15.01.2020 18:08 11,8 C 8,9 C 8,3 C 82 % 1015,1 hPa 0,0 l/m 0 min 2 min 0 W/m 25,7 km/h (4 Bft) 93,62 %
15.01.2020 18:10 11,8 C 8,9 C 8,3 C 82 % 1015,2 hPa 0,0 l/m 0 min 2 min 0 W/m 22,5 km/h (4 Bft) 97,87 %
15.01.2020 18:12 11,7 C 8,9 C 8,3 C 83 % 1015,2 hPa 0,0 l/m 0 min 2 min 0 W/m 12,9 km/h (3 Bft) 97,87 %
15.01.2020 18:14 11,7 C 8,9 C 8,3 C 83 % 1015,3 hPa 0,0 l/m 0 min 2 min 0 W/m 29,0 km/h (5 Bft) 100,00 %
15.01.2020 18:16 11,6 C 8,9 C 8,3 C 83 % 1015,3 hPa 0,0 l/m 0 min 2 min 0 W/m 19,3 km/h (3 Bft) 100,00 %
15.01.2020 18:18 11,6 C 8,9 C 8,3 C 84 % 1015,3 hPa 0,2 l/m 0 min 2 min 0 W/m 25,7 km/h (4 Bft) 100,00 %
15.01.2020 18:20 11,5 C 8,9 C 8,3 C 84 % 1015,4 hPa 0,0 l/m 0 min 2 min 0 W/m 19,3 km/h (3 Bft) 97,87 %
15.01.2020 18:22 11,4 C 8,3 C 8,3 C 85 % 1015,5 hPa 0,0 l/m 0 min 2 min 0 W/m 12,9 km/h (3 Bft) 100,00 %
15.01.2020 18:24 11,4 C 8,3 C 8,3 C 85 % 1015,6 hPa 0,0 l/m 0 min 2 min 0 W/m 16,1 km/h (3 Bft) 100,00 %
15.01.2020 18:26 11,3 C 8,3 C 8,3 C 86 % 1015,6 hPa 0,0 l/m 0 min 2 min 0 W/m 19,3 km/h (3 Bft) 100,00 %
15.01.2020 18:28 11,3 C 8,3 C 8,3 C 86 % 1015,6 hPa 0,2 l/m 0 min 2 min 0 W/m 22,5 km/h (4 Bft) 97,87 %
15.01.2020 18:30 11,3 C 8,3 C 8,3 C 86 % 1015,6 hPa 0,0 l/m 0 min 2 min 0 W/m 29,0 km/h (5 Bft) 95,65 %
15.01.2020 18:32 11,2 C 8,3 C 8,3 C 86 % 1015,7 hPa 0,0 l/m 0 min 2 min 0 W/m 12,9 km/h (3 Bft) 95,74 %
15.01.2020 18:34 11,2 C 8,3 C 8,3 C 87 % 1015,8 hPa 0,0 l/m 0 min 2 min 0 W/m 6,4 km/h (2 Bft) 97,87 %
15.01.2020 18:36 11,2 C 8,3 C 8,3 C 87 % 1015,8 hPa 0,0 l/m 0 min 2 min 0 W/m 29,0 km/h (5 Bft) 97,87 %
15.01.2020 18:38 11,1 C 8,3 C 8,3 C 87 % 1015,8 hPa 0,0 l/m 0 min 2 min 0 W/m 22,5 km/h (4 Bft) 95,74 %
15.01.2020 18:40 11,1 C 8,3 C 8,3 C 87 % 1015,8 hPa 0,0 l/m 0 min 2 min 0 W/m 16,1 km/h (3 Bft) 97,87 %
15.01.2020 18:42 11,0 C 8,3 C 8,3 C 88 % 1015,9 hPa 0,0 l/m 0 min 2 min 0 W/m 35,4 km/h (5 Bft) 97,83 %
15.01.2020 18:44 11,0 C 8,3 C 8,3 C 88 % 1015,9 hPa 0,0 l/m 0 min 2 min 0 W/m 12,9 km/h (3 Bft) 97,87 %
15.01.2020 18:46 10,9 C 8,9 C 8,3 C 88 % 1016,0 hPa 0,0 l/m 0 min 2 min 0 W/m 25,7 km/h (4 Bft) 95,74 %
15.01.2020 18:48 10,9 C 8,3 C 8,3 C 88 % 1016,1 hPa 0,0 l/m 0 min 2 min 0 W/m 16,1 km/h (3 Bft) 95,74 %
15.01.2020 18:50 10,9 C 8,3 C 8,3 C 88 % 1016,1 hPa 0,0 l/m 0 min 2 min 0 W/m 16,1 km/h (3 Bft) 97,87 %
15.01.2020 18:52 10,9 C 8,3 C 8,3 C 88 % 1016,1 hPa 0,0 l/m 0 min 2 min 0 W/m 6,4 km/h (2 Bft) 97,87 %
15.01.2020 18:54 10,9 C 8,9 C 8,3 C 89 % 1016,1 hPa 0,0 l/m 0 min 2 min 0 W/m 25,7 km/h (4 Bft) 97,83 %
15.01.2020 18:56 10,8 C 8,9 C 8,3 C 89 % 1016,3 hPa 0,2 l/m 0 min 2 min 0 W/m 29,0 km/h (5 Bft) 97,87 %
15.01.2020 18:58 10,8 C 8,3 C 8,3 C 89 % 1016,3 hPa 0,0 l/m 0 min 2 min 0 W/m 12,9 km/h (3 Bft) 95,74 %
15.01.2020 19:00 10,8 C 8,9 C 8,3 C 89 % 1016,3 hPa 0,0 l/m 0 min 2 min 0 W/m 29,0 km/h (5 Bft) 97,87 %
15.01.2020 19:02 10,8 C 8,9 C 8,3 C 89 % 1016,3 hPa 0,0 l/m 0 min 2 min 0 W/m 35,4 km/h (5 Bft) 97,87 %
15.01.2020 19:04 10,8 C 8,9 C 8,3 C 89 % 1016,4 hPa 0,0 l/m 0 min 2 min 0 W/m 22,5 km/h (4 Bft) 97,87 %
15.01.2020 19:06 10,8 C 8,9 C 8,3 C 89 % 1016,6 hPa 0,0 l/m 0 min 2 min 0 W/m 9,7 km/h (2 Bft) 93,75 %
15.01.2020 19:08 10,8 C 8,9 C 8,3 C 89 % 1016,6 hPa 0,0 l/m 0 min 2 min 0 W/m 38,6 km/h (5 Bft) 97,87 %
15.01.2020 19:10 10,7 C 8,9 C 8,3 C 89 % 1016,5 hPa 0,0 l/m 0 min 2 min 0 W/m 12,9 km/h (3 Bft) 95,74 %
15.01.2020 19:12 10,8 C 8,9 C 8,9 C 89 % 1016,5 hPa 0,0 l/m 0 min 2 min 0 W/m 29,0 km/h (5 Bft) 97,87 %
15.01.2020 19:14 10,8 C 8,9 C 8,9 C 89 % 1016,6 hPa 0,0 l/m 0 min 2 min 0 W/m 3,2 km/h (1 Bft) 100,00 %
15.01.2020 19:16 10,8 C 8,9 C 8,3 C 89 % 1016,7 hPa 0,0 l/m 0 min 2 min 0 W/m 16,1 km/h (3 Bft) 97,87 %
15.01.2020 19:18 10,8 C 8,9 C 8,9 C 89 % 1016,7 hPa 0,0 l/m 0 min 0 min 0 W/m 29,0 km/h (5 Bft) 97,87 %
15.01.2020 19:20 10,8 C 8,9 C 8,9 C 89 % 1016,7 hPa 0,0 l/m 0 min 0 min 0 W/m 12,9 km/h (3 Bft) 97,87 %
15.01.2020 19:22 10,8 C 8,9 C 8,9 C 89 % 1016,8 hPa 0,0 l/m 0 min 0 min 0 W/m 19,3 km/h (3 Bft) 46,34 %
15.01.2020 19:24 10,8 C 8,9 C 8,9 C 89 % 1016,8 hPa 0,0 l/m 0 min 0 min 0 W/m 22,5 km/h (4 Bft) 100,00 %
15.01.2020 19:26 10,8 C 9,4 C 8,9 C 89 % 1016,8 hPa 0,0 l/m 0 min 0 min 0 W/m 22,5 km/h (4 Bft) 100,00 %
15.01.2020 19:28 10,8 C 9,4 C 8,9 C 89 % 1016,9 hPa 0,0 l/m 0 min 0 min 0 W/m 25,7 km/h (4 Bft) 100,00 %
15.01.2020 19:30 10,8 C 9,4 C 8,9 C 89 % 1017,0 hPa 0,0 l/m 0 min 0 min 0 W/m 16,1 km/h (3 Bft) 100,00 %
15.01.2020 19:32 10,8 C 9,4 C 8,9 C 89 % 1017,0 hPa 0,0 l/m 0 min 0 min 0 W/m 19,3 km/h (3 Bft) 95,74 %
15.01.2020 19:34 10,8 C 9,4 C 8,9 C 89 % 1017,1 hPa 0,0 l/m 0 min 0 min 0 W/m 19,3 km/h (3 Bft) 100,00 %
15.01.2020 19:36 10,8 C 9,4 C 8,9 C 89 % 1017,1 hPa 0,0 l/m 0 min 0 min 0 W/m 19,3 km/h (3 Bft) 100,00 %
15.01.2020 19:38 10,8 C 9,4 C 8,9 C 89 % 1017,2 hPa 0,0 l/m 0 min 0 min 0 W/m 16,1 km/h (3 Bft) 100,00 %
15.01.2020 19:40 10,8 C 9,4 C 8,9 C 89 % 1017,2 hPa 0,0 l/m 0 min 0 min 0 W/m 19,3 km/h (3 Bft) 100,00 %
15.01.2020 19:42 10,8 C 9,4 C 8,9 C 89 % 1017,3 hPa 0,0 l/m 0 min 0 min 0 W/m 16,1 km/h (3 Bft) 97,87 %
15.01.2020 19:44 10,8 C 9,4 C 8,9 C 89 % 1017,3 hPa 0,0 l/m 0 min 0 min 0 W/m 22,5 km/h (4 Bft) 97,87 %
15.01.2020 19:46 10,8 C 9,4 C 8,9 C 89 % 1017,3 hPa 0,0 l/m 0 min 0 min 0 W/m 32,2 km/h (5 Bft) 97,87 %
15.01.2020 19:48 10,8 C 9,4 C 8,9 C 89 % 1017,4 hPa 0,0 l/m 0 min 0 min 0 W/m 22,5 km/h (4 Bft) 97,87 %
15.01.2020 19:50 10,8 C 9,4 C 8,9 C 89 % 1017,5 hPa 0,0 l/m 0 min 0 min 0 W/m 22,5 km/h (4 Bft) 97,83 %
15.01.2020 19:52 10,9 C 9,4 C 8,9 C 89 % 1017,5 hPa 0,0 l/m 0 min 0 min 0 W/m 25,7 km/h (4 Bft) 97,87 %
15.01.2020 19:54 10,9 C 9,4 C 8,3 C 89 % 1017,5 hPa 0,0 l/m 0 min 0 min 0 W/m 16,1 km/h (3 Bft) 97,87 %
15.01.2020 19:56 10,8 C 8,9 C 8,3 C 89 % 1017,5 hPa 0,0 l/m 0 min 0 min 0 W/m 3,2 km/h (1 Bft) 95,74 %
15.01.2020 19:58 10,8 C 8,9 C 8,3 C 89 % 1017,6 hPa 0,0 l/m 0 min 2 min 0 W/m 12,9 km/h (3 Bft) 97,87 %
15.01.2020 20:00 10,8 C 8,9 C 8,3 C 89 % 1017,6 hPa 0,0 l/m 0 min 2 min 0 W/m 19,3 km/h (3 Bft) 97,83 %
15.01.2020 20:02 10,8 C 8,9 C 8,3 C 89 % 1017,6 hPa 0,0 l/m 0 min 2 min 0 W/m 12,9 km/h (3 Bft) 97,87 %
15.01.2020 20:04 10,8 C 8,9 C 8,3 C 89 % 1017,7 hPa 0,0 l/m 0 min 2 min 0 W/m 0,0 km/h (0 Bft) 97,87 %
15.01.2020 20:06 10,8 C 9,4 C 8,3 C 89 % 1017,7 hPa 0,0 l/m 0 min 2 min 0 W/m 25,7 km/h (4 Bft) 95,74 %
15.01.2020 20:08 10,8 C 9,4 C 8,3 C 89 % 1017,8 hPa 0,0 l/m 0 min 2 min 0 W/m 3,2 km/h (1 Bft) 97,87 %
15.01.2020 20:10 10,8 C 8,9 C 8,3 C 89 % 1017,8 hPa 0,0 l/m 0 min 0 min 0 W/m 22,5 km/h (4 Bft) 97,87 %
15.01.2020 20:12 10,8 C 8,9 C 8,3 C 89 % 1017,8 hPa 0,0 l/m 0 min 2 min 0 W/m 0,0 km/h (0 Bft) 95,65 %
15.01.2020 20:14 10,8 C 9,4 C 8,3 C 89 % 1017,9 hPa 0,0 l/m 0 min 0 min 0 W/m 25,7 km/h (4 Bft) 97,87 %
15.01.2020 20:16 10,7 C 9,4 C 8,3 C 89 % 1018,0 hPa 0,0 l/m 0 min 2 min 0 W/m 16,1 km/h (3 Bft) 97,87 %
15.01.2020 20:18 10,7 C 9,4 C 8,3 C 89 % 1017,9 hPa 0,0 l/m 0 min 2 min 0 W/m 12,9 km/h (3 Bft) 97,87 %
15.01.2020 20:20 10,7 C 9,4 C 8,3 C 89 % 1018,0 hPa 0,0 l/m 0 min 0 min 0 W/m 0,0 km/h (0 Bft) 97,87 %
15.01.2020 20:22 10,7 C 9,4 C 8,3 C 89 % 1018,1 hPa 0,0 l/m 0 min 0 min 0 W/m 22,5 km/h (4 Bft) 97,87 %
15.01.2020 20:24 10,7 C 9,4 C 8,3 C 90 % 1018,2 hPa 0,0 l/m 0 min 0 min 0 W/m 9,7 km/h (2 Bft) 97,83 %
15.01.2020 20:26 10,7 C 9,4 C 8,3 C 90 % 1018,2 hPa 0,0 l/m 0 min 0 min 0 W/m 22,5 km/h (4 Bft) 100,00 %
15.01.2020 20:28 10,7 C 9,4 C 8,3 C 90 % 1018,3 hPa 0,0 l/m 0 min 0 min 0 W/m 19,3 km/h (3 Bft) 100,00 %
15.01.2020 20:30 10,7 C 9,4 C 8,3 C 90 % 1018,3 hPa 0,0 l/m 0 min 0 min 0 W/m 19,3 km/h (3 Bft) 100,00 %
15.01.2020 20:32 10,7 C 9,4 C 8,3 C 90 % 1018,3 hPa 0,0 l/m 0 min 0 min 0 W/m 19,3 km/h (3 Bft) 97,87 %
15.01.2020 20:34 10,7 C 10,0 C 8,3 C 90 % 1018,4 hPa 0,0 l/m 0 min 0 min 0 W/m 16,1 km/h (3 Bft) 100,00 %
15.01.2020 20:36 10,6 C 9,4 C 8,3 C 90 % 1018,5 hPa 0,0 l/m 0 min 0 min 0 W/m 16,1 km/h (3 Bft) 100,00 %
15.01.2020 20:38 10,6 C 10,0 C 8,3 C 90 % 1018,5 hPa 0,0 l/m 0 min 0 min 0 W/m 19,3 km/h (3 Bft) 100,00 %
15.01.2020 20:40 10,6 C 9,4 C 8,3 C 90 % 1018,5 hPa 0,0 l/m 0 min 0 min 0 W/m 6,4 km/h (2 Bft) 100,00 %
15.01.2020 20:42 10,6 C 9,4 C 8,3 C 90 % 1018,6 hPa 0,0 l/m 0 min 0 min 0 W/m 0,0 km/h (0 Bft) 100,00 %
15.01.2020 20:44 10,6 C 9,4 C 8,3 C 90 % 1018,7 hPa 0,0 l/m 0 min 0 min 0 W/m 6,4 km/h (2 Bft) 100,00 %
15.01.2020 20:46 10,6 C 9,4 C 8,3 C 90 % 1018,8 hPa 0,0 l/m 0 min 2 min 0 W/m 6,4 km/h (2 Bft) 97,87 %
15.01.2020 20:48 10,6 C 9,4 C 8,3 C 90 % 1018,8 hPa 0,0 l/m 0 min 0 min 0 W/m 0,0 km/h (0 Bft) 100,00 %
15.01.2020 20:50 10,6 C 9,4 C 8,3 C 90 % 1018,9 hPa 0,0 l/m 0 min 0 min 0 W/m 0,0 km/h (0 Bft) 97,87 %
15.01.2020 20:52 10,5 C 8,9 C 8,3 C 90 % 1019,0 hPa 0,0 l/m 0 min 0 min 0 W/m 19,3 km/h (3 Bft) 100,00 %
15.01.2020 20:54 10,4 C 8,9 C 7,8 C 90 % 1019,0 hPa 0,0 l/m 0 min 0 min 0 W/m 6,4 km/h (2 Bft) 97,87 %
15.01.2020 20:56 10,4 C 8,9 C 7,8 C 91 % 1019,0 hPa 0,0 l/m 0 min 0 min 0 W/m 3,2 km/h (1 Bft) 100,00 %
15.01.2020 20:58 10,3 C 8,3 C 7,8 C 91 % 1019,1 hPa 0,0 l/m 0 min 0 min 0 W/m 0,0 km/h (0 Bft) 100,00 %
15.01.2020 21:00 10,2 C 8,3 C 7,8 C 90 % 1019,1 hPa 0,0 l/m 0 min 0 min 0 W/m 0,0 km/h (0 Bft) 100,00 %
15.01.2020 21:02 10,1 C 8,3 C 7,8 C 90 % 1019,2 hPa 0,0 l/m 0 min 0 min 0 W/m 0,0 km/h (0 Bft) 97,87 %
15.01.2020 21:04 10,1 C 8,3 C 7,8 C 91 % 1019,2 hPa 0,0 l/m 0 min 0 min 0 W/m 0,0 km/h (0 Bft) 100,00 %
15.01.2020 21:06 10,0 C 8,3 C 7,2 C 91 % 1019,2 hPa 0,0 l/m 0 min 0 min 0 W/m 3,2 km/h (1 Bft) 100,00 %
15.01.2020 21:08 9,9 C 8,3 C 7,2 C 91 % 1019,3 hPa 0,0 l/m 0 min 0 min 0 W/m 9,7 km/h (2 Bft) 97,87 %
15.01.2020 21:10 9,8 C 8,3 C 7,2 C 91 % 1019,3 hPa 0,0 l/m 0 min 0 min 0 W/m 0,0 km/h (0 Bft) 97,87 %
15.01.2020 21:12 9,8 C 8,3 C 7,2 C 91 % 1019,3 hPa 0,0 l/m 0 min 0 min 0 W/m 12,9 km/h (3 Bft) 97,83 %
15.01.2020 21:14 9,7 C 8,3 C 7,2 C 91 % 1019,4 hPa 0,0 l/m 0 min 0 min 0 W/m 3,2 km/h (1 Bft) 97,87 %
15.01.2020 21:16 9,7 C 8,3 C 7,2 C 91 % 1019,4 hPa 0,0 l/m 0 min 0 min 0 W/m 22,5 km/h (4 Bft) 95,74 %
15.01.2020 21:18 9,6 C 8,3 C 7,2 C 91 % 1019,4 hPa 0,0 l/m 0 min 0 min 0 W/m 9,7 km/h (2 Bft) 95,74 %
15.01.2020 21:20 9,5 C 8,3 C 7,2 C 91 % 1019,4 hPa 0,0 l/m 0 min 0 min 0 W/m 6,4 km/h (2 Bft) 52,27 %
15.01.2020 21:22 9,4 C 8,3 C 7,2 C 91 % 1019,4 hPa 0,0 l/m 0 min 0 min 0 W/m 0,0 km/h (0 Bft) 95,65 %
15.01.2020 21:24 9,4 C 8,3 C 7,2 C 91 % 1019,4 hPa 0,0 l/m 0 min 0 min 0 W/m 16,1 km/h (3 Bft) 97,87 %
15.01.2020 21:26 9,3 C 8,3 C 7,2 C 91 % 1019,5 hPa 0,0 l/m 0 min 0 min 0 W/m 9,7 km/h (2 Bft) 95,74 %
15.01.2020 21:28 9,3 C 8,3 C 7,2 C 91 % 1019,5 hPa 0,0 l/m 0 min 0 min 0 W/m 0,0 km/h (0 Bft) 97,87 %
15.01.2020 21:30 9,3 C 8,3 C 7,2 C 91 % 1019,6 hPa 0,0 l/m 0 min 0 min 0 W/m 0,0 km/h (0 Bft) 95,74 %
15.01.2020 21:32 9,3 C 8,3 C 7,2 C 92 % 1019,7 hPa 0,0 l/m 0 min 0 min 0 W/m 12,9 km/h (3 Bft) 95,74 %
15.01.2020 21:34 9,2 C 8,3 C 7,2 C 91 % 1019,7 hPa 0,0 l/m 0 min 0 min 0 W/m 3,2 km/h (1 Bft) 95,65 %
15.01.2020 21:36 9,2 C 7,8 C 7,2 C 91 % 1019,7 hPa 0,0 l/m 0 min 0 min 0 W/m 0,0 km/h (0 Bft) 95,74 %
15.01.2020 21:38 9,2 C 7,8 C 7,2 C 91 % 1019,8 hPa 0,0 l/m 0 min 0 min 0 W/m 0,0 km/h (0 Bft) 95,74 %
15.01.2020 21:40 9,1 C 7,8 C 7,2 C 91 % 1019,7 hPa 0,0 l/m 0 min 0 min 0 W/m 0,0 km/h (0 Bft) 95,74 %
15.01.2020 21:42 9,1 C 7,8 C 7,2 C 91 % 1019,8 hPa 0,0 l/m 0 min 0 min 0 W/m 3,2 km/h (1 Bft) 95,74 %
15.01.2020 21:44 9,1 C 7,8 C 7,2 C 91 % 1019,9 hPa 0,0 l/m 0 min 0 min 0 W/m 6,4 km/h (2 Bft) 95,74 %
15.01.2020 21:46 9,1 C 7,8 C 7,2 C 91 % 1020,0 hPa 0,0 l/m 0 min 0 min 0 W/m 6,4 km/h (2 Bft) 95,65 %
15.01.2020 21:48 9,0 C 7,8 C 7,2 C 92 % 1020,0 hPa 0,0 l/m 0 min 0 min 0 W/m 0,0 km/h (0 Bft) 95,74 %
15.01.2020 21:50 9,0 C 7,8 C 7,2 C 92 % 1020,1 hPa 0,0 l/m 0 min 0 min 0 W/m 0,0 km/h (0 Bft) 95,74 %
15.01.2020 21:52 9,0 C 7,8 C 7,2 C 92 % 1020,0 hPa 0,0 l/m 0 min 0 min 0 W/m 3,2 km/h (1 Bft) 93,62 %
15.01.2020 21:54 8,9 C 7,8 C 7,2 C 92 % 1020,1 hPa 0,0 l/m 0 min 0 min 0 W/m 3,2 km/h (1 Bft) 93,62 %
15.01.2020 21:56 8,9 C 7,8 C 7,2 C 92 % 1020,1 hPa 0,0 l/m 0 min 0 min 0 W/m 6,4 km/h (2 Bft) 95,74 %
15.01.2020 21:58 8,9 C 7,8 C 7,2 C 92 % 1020,2 hPa 0,0 l/m 0 min 0 min 0 W/m 3,2 km/h (1 Bft) 93,48 %
15.01.2020 22:00 8,8 C 7,8 C 7,2 C 92 % 1020,3 hPa 0,0 l/m 0 min 0 min 0 W/m 0,0 km/h (0 Bft) 93,62 %
15.01.2020 22:02 8,8 C 7,8 C 7,2 C 91 % 1020,4 hPa 0,0 l/m 0 min 0 min 0 W/m 0,0 km/h (0 Bft) 93,62 %
15.01.2020 22:04 8,8 C 7,2 C 7,2 C 91 % 1020,4 hPa 0,0 l/m 0 min 0 min 0 W/m 0,0 km/h (0 Bft) 95,74 %
15.01.2020 22:06 8,8 C 7,2 C 7,2 C 91 % 1020,4 hPa 0,0 l/m 0 min 0 min 0 W/m 0,0 km/h (0 Bft) 95,74 %
15.01.2020 22:08 8,7 C 7,2 C 7,2 C 91 % 1020,4 hPa 0,0 l/m 0 min 0 min 0 W/m 0,0 km/h (0 Bft) 95,74 %
15.01.2020 22:10 8,7 C 7,2 C 7,2 C 91 % 1020,4 hPa 0,0 l/m 0 min 0 min 0 W/m 3,2 km/h (1 Bft) 93,48 %
15.01.2020 22:12 8,7 C 7,2 C 7,2 C 91 % 1020,4 hPa 0,0 l/m 0 min 0 min 0 W/m 0,0 km/h (0 Bft) 89,36 %
15.01.2020 22:14 8,6 C 7,2 C 7,2 C 91 % 1020,5 hPa 0,0 l/m 0 min 0 min 0 W/m 3,2 km/h (1 Bft) 93,62 %
15.01.2020 22:16 8,6 C 7,2 C 7,2 C 91 % 1020,6 hPa 0,0 l/m 0 min 0 min 0 W/m 0,0 km/h (0 Bft) 93,62 %
15.01.2020 22:18 8,6 C 7,2 C 6,7 C 91 % 1020,6 hPa 0,0 l/m 0 min 0 min 0 W/m 3,2 km/h (1 Bft) 95,74 %
15.01.2020 22:20 8,5 C 7,2 C 6,7 C 91 % 1020,6 hPa 0,0 l/m 0 min 0 min 0 W/m 0,0 km/h (0 Bft) 93,62 %
15.01.2020 22:22 8,5 C 7,2 C 6,7 C 91 % 1020,8 hPa 0,0 l/m 0 min 0 min 0 W/m 0,0 km/h (0 Bft) 95,65 %
15.01.2020 22:24 8,4 C 7,2 C 6,7 C 91 % 1020,8 hPa 0,0 l/m 0 min 0 min 0 W/m 0,0 km/h (0 Bft) 97,87 %
15.01.2020 22:26 8,4 C 7,2 C 6,7 C 91 % 1020,9 hPa 0,0 l/m 0 min 0 min 0 W/m 0,0 km/h (0 Bft) 95,74 %
15.01.2020 22:28 8,4 C 7,2 C 6,7 C 91 % 1020,8 hPa 0,0 l/m 0 min 0 min 0 W/m 0,0 km/h (0 Bft) 95,74 %
15.01.2020 22:30 8,3 C 7,2 C 6,7 C 91 % 1020,9 hPa 0,0 l/m 0 min 0 min 0 W/m 3,2 km/h (1 Bft) 97,87 %
15.01.2020 22:32 8,3 C 7,2 C 6,7 C 91 % 1020,9 hPa 0,0 l/m 0 min 0 min 0 W/m 3,2 km/h (1 Bft) 93,48 %
15.01.2020 22:34 8,3 C 7,2 C 6,7 C 91 % 1021,0 hPa 0,0 l/m 0 min 0 min 0 W/m 3,2 km/h (1 Bft) 97,87 %
15.01.2020 22:36 8,2 C 7,2 C 6,7 C 91 % 1021,0 hPa 0,0 l/m 0 min 0 min 0 W/m 12,9 km/h (3 Bft) 97,87 %
15.01.2020 22:38 8,2 C 6,7 C 6,7 C 91 % 1021,0 hPa 0,0 l/m 0 min 0 min 0 W/m 0,0 km/h (0 Bft) 97,87 %
15.01.2020 22:40 8,2 C 6,7 C 6,7 C 91 % 1021,1 hPa 0,0 l/m 0 min 0 min 0 W/m 3,2 km/h (1 Bft) 97,87 %
15.01.2020 22:42 8,2 C 6,7 C 6,7 C 91 % 1021,2 hPa 0,0 l/m 0 min 0 min 0 W/m 0,0 km/h (0 Bft) 93,62 %
15.01.2020 22:44 8,1 C 6,7 C 6,7 C 91 % 1021,2 hPa 0,0 l/m 0 min 0 min 0 W/m 3,2 km/h (1 Bft) 97,83 %
15.01.2020 22:46 8,1 C 6,7 C 6,7 C 91 % 1021,2 hPa 0,0 l/m 0 min 0 min 0 W/m 0,0 km/h (0 Bft) 97,87 %
15.01.2020 22:48 8,1 C 6,7 C 6,1 C 91 % 1021,3 hPa 0,0 l/m 0 min 0 min 0 W/m 0,0 km/h (0 Bft) 95,74 %
15.01.2020 22:50 8,0 C 6,7 C 6,1 C 91 % 1021,3 hPa 0,0 l/m 0 min 0 min 0 W/m 3,2 km/h (1 Bft) 95,74 %
15.01.2020 22:52 8,0 C 6,7 C 6,1 C 91 % 1021,3 hPa 0,0 l/m 0 min 0 min 0 W/m 0,0 km/h (0 Bft) 100,00 %
15.01.2020 22:54 7,9 C 6,7 C 6,1 C 91 % 1021,3 hPa 0,0 l/m 0 min 0 min 0 W/m 0,0 km/h (0 Bft) 97,87 %
15.01.2020 22:56 7,9 C 6,7 C 6,1 C 91 % 1021,3 hPa 0,0 l/m 0 min 0 min 0 W/m 3,2 km/h (1 Bft) 97,83 %
15.01.2020 22:58 7,9 C 6,7 C 6,1 C 91 % 1021,4 hPa 0,0 l/m 0 min 0 min 0 W/m 0,0 km/h (0 Bft) 100,00 %
15.01.2020 23:00 7,9 C 6,7 C 6,1 C 91 % 1021,4 hPa 0,0 l/m 0 min 0 min 0 W/m 3,2 km/h (1 Bft) 97,87 %
15.01.2020 23:02 7,8 C 6,7 C 6,1 C 91 % 1021,5 hPa 0,0 l/m 0 min 0 min 0 W/m 0,0 km/h (0 Bft) 100,00 %
15.01.2020 23:04 7,8 C 6,7 C 6,1 C 92 % 1021,6 hPa 0,0 l/m 0 min 0 min 0 W/m 0,0 km/h (0 Bft) 100,00 %
15.01.2020 23:06 7,8 C 6,7 C 6,1 C 92 % 1021,6 hPa 0,0 l/m 0 min 0 min 0 W/m 0,0 km/h (0 Bft) 100,00 %
15.01.2020 23:08 7,8 C 6,7 C 6,1 C 92 % 1021,7 hPa 0,0 l/m 0 min 0 min 0 W/m 3,2 km/h (1 Bft) 100,00 %
15.01.2020 23:10 7,7 C 6,7 C 6,1 C 92 % 1021,7 hPa 0,0 l/m 0 min 0 min 0 W/m 0,0 km/h (0 Bft) 100,00 %
15.01.2020 23:12 7,7 C 6,7 C 6,1 C 91 % 1021,7 hPa 0,0 l/m 0 min 0 min 0 W/m 0,0 km/h (0 Bft) 100,00 %
15.01.2020 23:14 7,7 C 6,7 C 6,1 C 91 % 1021,8 hPa 0,0 l/m 0 min 0 min 0 W/m 0,0 km/h (0 Bft) 100,00 %
15.01.2020 23:16 7,6 C 6,7 C 6,1 C 91 % 1021,9 hPa 0,0 l/m 0 min 0 min 0 W/m 0,0 km/h (0 Bft) 100,00 %
15.01.2020 23:18 7,6 C 6,7 C 6,1 C 91 % 1021,9 hPa 0,0 l/m 0 min 0 min 0 W/m 0,0 km/h (0 Bft) 100,00 %
15.01.2020 23:20 7,6 C 6,1 C 6,1 C 91 % 1022,0 hPa 0,0 l/m 0 min 0 min 0 W/m 0,0 km/h (0 Bft) 100,00 %
15.01.2020 23:22 7,6 C 6,1 C 5,6 C 91 % 1022,0 hPa 0,0 l/m 0 min 0 min 0 W/m 0,0 km/h (0 Bft) 100,00 %
15.01.2020 23:24 7,5 C 6,1 C 5,6 C 91 % 1022,1 hPa 0,0 l/m 0 min 0 min 0 W/m 0,0 km/h (0 Bft) 100,00 %
15.01.2020 23:26 7,5 C 6,1 C 5,6 C 92 % 1022,1 hPa 0,0 l/m 0 min 0 min 0 W/m 0,0 km/h (0 Bft) 100,00 %
15.01.2020 23:28 7,4 C 6,1 C 5,6 C 92 % 1022,1 hPa 0,0 l/m 0 min 0 min 0 W/m 3,2 km/h (1 Bft) 100,00 %
15.01.2020 23:30 7,4 C 6,1 C 5,6 C 92 % 1022,1 hPa 0,0 l/m 0 min 0 min 0 W/m 0,0 km/h (0 Bft) 100,00 %
15.01.2020 23:32 7,4 C 6,1 C 5,6 C 92 % 1022,2 hPa 0,0 l/m 0 min 0 min 0 W/m 0,0 km/h (0 Bft) 100,00 %
15.01.2020 23:34 7,3 C 6,1 C 5,6 C 91 % 1022,2 hPa 0,0 l/m 0 min 0 min 0 W/m 0,0 km/h (0 Bft) 100,00 %
15.01.2020 23:36 7,3 C 6,1 C 5,6 C 91 % 1022,3 hPa 0,0 l/m 0 min 0 min 0 W/m 0,0 km/h (0 Bft) 100,00 %
15.01.2020 23:38 7,3 C 6,1 C 5,6 C 91 % 1022,3 hPa 0,0 l/m 0 min 0 min 0 W/m 0,0 km/h (0 Bft) 100,00 %
15.01.2020 23:40 7,3 C 6,1 C 5,6 C 91 % 1022,4 hPa 0,0 l/m 0 min 0 min 0 W/m 0,0 km/h (0 Bft) 100,00 %
15.01.2020 23:42 7,2 C 6,1 C 5,6 C 91 % 1022,5 hPa 0,0 l/m 0 min 0 min 0 W/m 0,0 km/h (0 Bft) 100,00 %
15.01.2020 23:44 7,2 C 6,1 C 5,6 C 91 % 1022,5 hPa 0,0 l/m 0 min 0 min 0 W/m 0,0 km/h (0 Bft) 100,00 %
15.01.2020 23:46 7,2 C 6,1 C 5,6 C 91 % 1022,6 hPa 0,0 l/m 0 min 0 min 0 W/m 0,0 km/h (0 Bft) 100,00 %
15.01.2020 23:48 7,2 C 6,1 C 5,6 C 92 % 1022,7 hPa 0,0 l/m 0 min 0 min 0 W/m 0,0 km/h (0 Bft) 100,00 %
15.01.2020 23:50 7,1 C 5,6 C 5,6 C 91 % 1022,7 hPa 0,0 l/m 0 min 0 min 0 W/m 0,0 km/h (0 Bft) 100,00 %
15.01.2020 23:52 7,1 C 5,6 C 5,6 C 92 % 1022,7 hPa 0,0 l/m 0 min 0 min 0 W/m 0,0 km/h (0 Bft) 100,00 %
15.01.2020 23:54 7,1 C 5,6 C 5,6 C 92 % 1022,8 hPa 0,0 l/m 0 min 0 min 0 W/m 0,0 km/h (0 Bft) 100,00 %
15.01.2020 23:56 7,1 C 5,6 C 5,6 C 92 % 1022,8 hPa 0,0 l/m 0 min 0 min 0 W/m 0,0 km/h (0 Bft) 100,00 %
15.01.2020 23:58 7,0 C 5,6 C 5,6 C 92 % 1022,8 hPa 0,0 l/m 0 min 0 min 0 W/m 0,0 km/h (0 Bft) 100,00 %
_ Min-Zeit 23:58 23:50 23:22 13:16 00:16 - - - - 00:44 19:22
Minimum _ 7,0 C 5,6 C 5,6 C 66 % 1009,6 hPa - - - - 0,0 km/h (0 Bft) 46,34 %
_ Max-Zeit 13:36 12:56 12:38 21:32 23:54 17:54 12:04 15:12 12:06 14:50 01:16
Maximum _ 13,9 C 16,1 C 13,9 C 92 % 1022,8 hPa 0,2 l/m 2 min 2 min 422 W/m 64,4 km/h
SO (8 Bft)
100,00 %
Durchschnitt _ 11,3 C 10,5 C 9,7 C 80 % 1013,1 hPa #1,0 l/m #2:20 h #3:02 h 114 W/m 16,8 km/h (3 Bft) 97,25 %
© 2020 W. Hausmann